GFSSGP_500_spd_000.txt.gz
Wind_Speed
13 14 16 14 15 16 18 15 15 15 14 14 14 15 15 11 8 8 7 5 4 5 4 1 1 2 3 2 4 5 6 7 9 11 11 12 14 13 10 8 8 8 8 7 7 6 8 9 10
18 19 20 20 20 21 22 19 19 17 18 17 16 17 17 16 13 10 10 10 9 8 7 7 4 4 4 6 6 7 6 6 7 9 9 11 11 12 13 12 11 11 12 13 13 13 12 11 12
20 21 21 21 22 23 24 22 21 20 20 20 20 20 19 19 18 16 12 12 12 13 12 11 10 11 9 7 9 9 10 9 8 10 10 11 12 13 13 14 14 14 14 14 14 15 15 15 16
17 18 18 18 20 21 17 20 22 20 21 21 22 22 21 20 20 19 17 15 13 14 15 15 15 15 13 11 11 12 12 11 10 11 12 14 15 15 16 15 15 13 13 13 13 15 16 17 18
13 14 15 14 15 16 15 17 18 20 20 20 21 19 19 18 17 18 17 18 17 16 16 16 18 18 16 14 13 14 16 15 13 13 14 16 19 19 20 20 20 20 19 18 18 19 19 18 18
12 13 14 14 14 13 15 16 17 18 17 18 17 17 16 17 16 17 16 17 17 18 18 18 19 20 21 19 18 17 17 18 20 20 19 19 20 22 23 24 23 24 22 22 22 21 21 21 22
12 12 12 12 12 14 15 16 16 17 19 18 19 17 15 15 13 14 16 17 17 19 19 20 20 21 23 22 22 22 22 21 21 21 24 24 23 23 24 24 24 22 21 20 19 19 20 19 19
13 12 12 12 10 11 12 12 15 17 18 19 19 18 16 17 15 14 14 15 16 18 20 21 22 23 22 23 23 25 25 26 26 27 26 26 27 27 28 27 25 26 25 22 23 23 22 23 23
13 13 12 13 14 12 13 14 15 18 19 22 22 20 18 17 17 18 18 18 18 19 20 21 23 23 24 25 26 26 27 28 28 29 29 30 30 31 32 32 32 30 31 30 29 27 25 26 26
17 17 17 16 16 16 16 17 16 19 21 20 20 18 20 19 19 19 19 18 20 21 21 22 24 25 25 27 29 29 29 29 30 31 33 32 32 33 33 35 37 38 38 38 37 37 33 32 32
20 22 22 22 22 21 20 20 21 19 24 19 20 19 21 20 22 22 21 20 20 21 22 23 26 26 26 28 30 31 32 32 33 35 36 36 36 35 36 36 36 37 38 37 38 38 37 37 35
27 28 27 27 26 28 26 25 24 24 27 24 20 25 20 24 24 24 24 25 25 25 26 25 25 26 29 31 32 33 34 35 35 35 36 37 38 38 39 39 38 38 38 36 36 35 37 34 31
33 32 33 34 32 33 32 31 30 25 30 30 30 27 27 28 29 27 27 29 30 30 29 31 30 29 29 29 31 34 36 37 38 39 39 39 40 39 39 39 38 38 38 39 39 39 37 36 33
39 38 37 38 37 38 38 36 36 31 32 34 34 32 33 30 32 33 33 32 33 33 33 33 34 33 32 33 33 34 36 38 39 41 41 42 43 41 42 40 40 39 39 41 42 40 37 35 32
42 42 42 39 40 40 43 42 38 37 37 36 36 38 36 36 36 35 36 35 37 36 34 35 36 36 34 34 34 34 35 36 38 40 42 43 42 42 43 41 42 43 44 43 43 38 35 35 37
42 45 46 43 44 45 44 43 38 41 40 36 38 38 39 38 38 38 38 38 40 39 36 38 37 37 37 37 37 35 35 34 35 37 40 41 42 41 41 41 43 44 45 45 43 39 37 36 39
39 45 45 41 40 44 45 42 34 42 44 39 38 37 39 39 37 37 39 42 40 39 38 37 38 38 38 38 39 38 37 37 37 38 39 39 39 41 41 42 42 42 43 43 43 42 41 41 43
40 44 42 39 40 49 45 40 32 33 39 40 35 34 36 38 37 36 36 42 40 40 40 41 41 41 41 41 42 42 41 41 41 41 40 40 40 41 42 43 43 43 43 43 46 46 47 47 51
44 44 45 34 35 53 48 47 40 39 32 33 30 28 33 37 38 37 35 37 40 41 40 39 40 42 44 46 47 48 47 48 47 47 45 43 42 41 42 43 45 46 45 46 48 49 50 53 51
48 50 49 47 42 52 52 52 44 39 36 27 27 28 32 38 40 36 37 37 41 41 39 40 41 44 47 48 50 50 50 50 51 49 46 44 43 43 45 46 47 47 47 48 50 51 50 53 56
52 53 53 54 48 55 53 57 44 36 32 28 26 29 31 35 35 28 30 34 37 39 41 41 46 48 47 49 51 51 51 51 50 51 48 45 45 43 45 47 48 48 49 50 52 53 52 52 57
56 52 53 52 54 59 55 64 47 40 37 35 31 31 31 31 32 31 34 36 38 42 44 45 49 50 51 51 50 51 50 52 51 49 48 48 47 46 47 47 48 49 50 52 54 56 57 58 60
53 51 51 55 59 63 62 61 58 51 43 41 37 40 35 33 29 32 33 36 37 42 46 50 54 55 53 51 50 51 52 53 51 50 51 49 49 48 49 50 51 52 54 55 57 58 59 61 64
56 57 58 59 61 70 64 60 57 54 50 50 52 48 42 36 35 34 33 35 37 42 47 50 50 52 51 52 51 51 51 52 54 55 55 52 52 53 52 53 55 56 57 59 61 61 61 63 67
52 57 59 64 67 68 65 66 61 57 55 51 53 53 45 44 43 38 27 34 37 40 46 49 52 52 52 48 45 43 46 51 54 55 55 53 52 53 53 55 57 60 61 62 62 63 64 65 68
52 53 57 61 64 66 65 65 58 55 54 55 57 55 49 45 37 31 37 35 40 43 46 50 52 54 52 50 46 47 48 47 49 50 51 52 53 53 55 58 60 62 62 63 64 66 67 68 70
56 59 53 59 61 65 63 65 61 59 60 55 56 58 47 40 40 38 38 41 48 48 52 55 56 57 56 53 48 48 46 44 48 52 52 54 57 57 57 59 62 64 65 67 67 68 70 72 73
62 58 60 64 67 70 67 64 59 64 69 66 55 52 54 49 46 44 45 45 48 55 55 58 59 55 55 53 48 47 47 44 46 51 55 59 61 63 63 62 65 68 69 69 69 71 72 76 71
62 64 66 67 71 74 73 63 64 69 66 64 62 59 55 58 58 58 51 52 53 58 59 56 58 58 55 52 51 52 50 48 51 56 61 63 63 64 64 66 68 69 69 69 70 72 74 72 70
70 71 70 72 73 76 73 72 68 65 62 61 62 63 60 59 60 64 60 55 57 61 61 61 60 57 53 52 54 51 52 55 59 60 64 64 64 66 69 70 71 71 71 70 70 71 70 73 74

GFSSGP_500_spd_003.txt.gz
Wind_Speed
15 16 17 18 19 20 18 17 15 16 15 14 15 15 14 14 10 8 5 7 7 6 5 4 3 3 4 2 1 3 4 6 6 6 8 8 7 8 9 6 4 4 5 5 5 5 7 10 13
17 18 18 19 20 22 21 18 16 14 16 17 17 17 17 15 14 12 8 10 9 11 9 10 9 7 6 6 5 4 3 2 2 4 5 5 8 9 10 10 10 9 8 7 7 7 6 7 8
13 15 15 16 17 19 18 14 12 14 15 16 17 17 19 18 17 16 13 12 11 13 12 13 14 13 10 9 9 7 6 7 7 6 6 5 6 8 9 11 11 11 12 10 10 10 11 11 10
11 12 13 14 15 14 16 12 10 12 13 15 16 17 17 15 17 16 16 14 13 14 13 14 15 16 15 14 14 12 11 10 10 10 10 9 9 10 11 12 13 13 13 13 13 13 12 13 14
12 12 12 14 16 12 14 14 13 14 14 15 15 14 15 12 13 14 13 14 13 15 14 15 16 18 19 19 18 16 14 14 15 14 13 13 14 15 15 17 17 17 18 19 19 18 18 17 17
12 11 11 12 13 11 11 13 12 13 14 17 17 16 17 14 12 13 13 13 13 15 15 16 18 18 20 22 23 21 18 17 18 18 18 18 18 18 19 21 21 22 21 22 22 20 20 20 20
11 12 11 11 11 13 12 13 13 12 12 14 17 15 18 17 16 13 12 11 12 14 16 18 19 20 21 22 23 24 23 21 21 21 20 21 21 22 21 21 23 23 22 22 21 18 19 20 18
12 13 12 12 12 12 12 13 14 15 17 16 18 17 16 17 17 17 17 16 15 13 15 17 18 20 21 21 22 24 25 24 24 24 25 25 25 25 26 26 27 26 26 25 23 23 22 23 23
15 15 14 15 13 13 14 15 16 17 17 18 18 17 16 16 17 17 17 16 17 16 16 18 18 20 21 21 22 24 25 27 27 26 27 27 27 26 27 28 29 29 31 31 33 32 31 28 26
19 19 19 19 19 17 16 17 17 18 19 20 19 20 16 17 17 18 19 19 18 18 17 18 19 20 21 22 24 25 27 29 29 30 31 31 31 31 31 31 31 31 33 34 37 37 38 38 36
24 25 26 24 24 24 22 21 22 21 22 24 21 22 21 19 19 20 19 20 20 19 20 21 22 21 22 23 25 26 29 31 32 33 33 34 35 36 36 35 36 38 37 37 39 40 41 39 40
31 31 31 30 31 30 30 26 26 25 25 27 25 23 22 24 24 24 22 22 22 22 24 24 25 24 25 25 25 26 28 31 34 35 36 37 38 38 37 37 37 39 41 40 40 41 42 42 41
36 36 34 35 36 36 37 34 35 24 29 31 31 30 27 25 26 28 28 28 27 27 28 27 26 27 28 28 27 26 28 29 32 33 36 38 39 41 41 40 40 40 41 41 41 41 42 43 42
40 40 39 37 37 41 40 38 41 32 35 33 33 32 32 32 31 29 32 32 31 30 31 30 30 30 30 30 30 30 28 29 31 33 35 37 40 42 43 44 44 44 45 44 44 44 45 45 44
43 43 40 36 41 43 42 38 36 38 41 36 36 34 35 34 34 33 33 34 34 33 32 32 35 33 32 32 32 31 30 31 32 34 34 36 38 40 42 44 46 46 45 47 46 47 49 48 48
41 40 38 29 37 40 41 38 29 36 39 37 35 33 36 36 35 33 35 35 34 34 32 33 35 34 34 32 31 31 32 32 32 33 32 34 35 37 39 39 42 44 47 47 47 49 51 52 51
36 41 41 32 35 41 41 39 23 27 34 31 26 28 30 31 31 32 34 34 34 35 33 33 35 34 34 33 32 34 34 35 35 36 36 36 36 36 35 37 40 42 43 45 47 48 50 51 51
39 47 43 40 35 46 49 45 34 32 35 33 28 27 27 31 29 31 30 30 34 35 34 35 36 37 35 33 32 35 36 38 39 40 40 41 40 40 40 40 41 42 45 47 48 48 49 50 51
49 49 52 43 38 53 53 54 40 34 33 33 32 30 29 30 30 30 31 32 34 35 35 34 36 37 35 35 35 36 39 40 40 41 41 42 43 44 42 40 40 41 43 44 47 50 51 50 50
53 54 54 53 45 54 56 58 51 40 34 30 28 25 27 32 32 31 33 32 31 32 31 32 35 35 35 35 37 39 42 42 43 44 45 45 43 43 44 43 42 43 44 46 47 48 50 52 52
51 55 55 57 52 55 58 63 52 44 38 33 30 33 34 33 33 35 33 33 31 31 33 33 34 36 37 40 41 43 44 45 44 43 44 45 44 43 43 42 43 45 45 47 48 48 50 52 53
51 44 49 53 54 60 53 67 53 45 44 38 37 35 33 33 35 38 38 38 37 36 33 34 36 38 41 44 45 47 47 47 46 46 47 48 47 47 45 44 44 45 45 47 48 51 52 54 55
52 50 50 52 56 60 63 63 55 50 44 39 36 38 39 36 36 37 34 34 36 38 37 37 39 42 46 50 49 45 44 44 46 49 49 49 48 48 49 49 47 47 47 47 49 52 55 56 59
48 52 54 54 56 60 57 58 56 52 51 44 40 38 39 39 35 32 30 32 36 38 38 39 41 42 44 47 48 48 47 47 45 46 48 51 52 52 51 51 50 48 47 47 49 52 55 59 62
46 51 56 59 60 61 58 59 55 58 52 50 47 44 45 43 39 42 36 36 36 35 35 39 43 45 47 47 49 52 52 49 46 46 47 53 56 55 54 51 50 49 49 51 53 55 57 59 63
52 52 58 58 60 61 61 60 57 61 59 53 53 53 50 49 48 36 30 23 25 33 35 39 43 48 50 53 56 57 57 52 50 50 49 50 55 61 59 54 52 52 53 55 58 61 61 62 65
59 60 53 58 59 63 64 66 56 60 60 63 56 59 54 50 39 32 36 35 38 44 42 42 45 51 53 55 57 57 55 52 49 49 44 46 51 54 56 55 55 57 60 60 60 61 63 65 68
63 60 59 62 63 64 64 66 67 61 61 63 63 62 51 28 36 53 41 42 50 50 52 50 52 56 56 56 57 56 52 51 48 47 49 49 50 51 52 55 53 58 60 64 64 66 67 68 71
58 58 60 63 66 70 72 67 64 64 65 65 63 63 60 57 55 41 48 48 47 59 57 55 54 56 58 55 56 54 54 52 47 48 51 53 54 51 52 56 60 61 63 68 69 70 70 70 69
62 63 63 66 69 73 76 75 58 61 65 69 71 63 62 60 57 57 58 60 66 59 58 58 58 58 59 60 56 54 55 52 52 53 54 55 53 53 61 63 65 66 68 68 70 70 68 67 67

GFSSGP_500_spd_006.txt.gz
Wind_Speed
16 16 16 17 17 18 16 16 15 17 13 11 13 14 13 13 9 7 7 7 9 9 8 6 6 4 3 3 1 3 4 4 5 5 5 3 3 2 2 0 2 4 4 4 4 3 5 9 12
12 12 13 14 14 13 13 10 10 9 9 10 11 12 14 15 13 11 10 10 11 9 11 10 9 9 7 6 6 5 2 2 2 1 1 0 0 1 1 2 3 3 4 6 6 5 5 5 7
9 11 12 12 13 11 10 9 10 9 10 11 13 13 13 13 12 12 13 13 13 11 11 11 12 12 12 12 9 8 7 6 6 6 5 5 5 4 5 5 6 6 7 8 8 9 8 8 9
8 9 11 13 13 12 9 7 8 8 9 11 11 13 13 12 12 12 12 14 15 14 13 12 12 13 14 14 14 13 12 11 10 10 9 9 8 9 8 9 10 10 12 13 13 13 13 12 12
8 8 9 11 11 13 14 10 9 10 10 11 13 13 12 13 13 12 11 13 14 14 15 16 15 14 15 16 17 17 16 15 14 13 13 12 12 12 13 13 15 15 16 17 18 19 18 16 16
8 8 9 10 9 10 11 10 11 10 11 12 13 15 14 13 12 12 11 11 11 12 15 17 18 17 18 17 19 20 21 19 17 15 16 16 16 16 15 16 17 18 19 19 20 20 20 19 16
11 10 9 9 9 9 10 12 11 11 12 13 12 13 15 13 12 12 11 11 12 11 13 15 17 18 19 20 20 21 23 23 22 20 19 19 18 19 20 21 21 20 20 21 21 20 20 18 18
13 13 12 12 12 11 12 12 12 12 12 12 14 13 15 13 12 11 10 11 10 11 11 13 15 16 18 20 21 23 22 24 24 23 22 22 23 24 25 25 26 25 25 25 25 24 23 23 22
20 19 19 18 16 14 14 14 15 14 14 14 12 15 14 13 13 13 13 13 13 12 11 11 12 14 15 18 19 22 24 24 25 26 26 26 26 26 26 26 26 27 28 27 27 29 30 31 31
26 26 27 24 25 23 22 19 18 18 17 18 16 19 19 17 16 15 14 14 16 15 14 16 15 15 15 16 19 21 23 25 27 28 29 30 29 29 29 30 30 30 31 30 31 32 33 35 36
31 31 32 31 31 29 29 29 26 23 19 23 21 21 21 23 22 20 19 18 17 18 18 19 18 19 19 20 20 21 23 26 28 30 31 32 33 32 32 33 34 34 34 36 36 37 37 38 38
32 32 35 33 34 33 34 33 32 32 23 28 27 25 24 25 26 26 25 23 24 22 23 23 23 21 20 21 23 23 25 26 26 28 30 32 33 35 36 36 36 37 36 37 37 40 41 41 41
36 35 36 35 36 37 39 35 36 30 32 33 31 29 28 27 28 29 29 30 30 27 28 27 26 25 23 22 25 25 27 27 26 26 27 28 31 33 36 38 40 40 39 41 41 41 42 42 43
37 36 35 34 35 40 42 34 33 24 36 33 34 34 32 31 31 31 32 33 32 33 31 31 28 28 27 27 29 29 29 29 28 29 28 29 30 32 34 36 38 40 41 43 44 44 44 45 45
37 37 34 27 32 41 40 29 24 28 36 33 33 33 34 32 34 34 34 35 34 35 35 34 33 31 30 30 31 31 29 29 28 28 30 30 30 32 33 33 35 38 40 42 44 46 46 47 49
40 39 34 24 32 39 40 32 21 27 32 30 29 29 28 27 30 31 33 35 35 34 34 36 36 32 33 33 33 33 31 29 29 29 29 29 29 30 29 31 32 34 37 39 41 43 45 47 48
37 43 40 34 31 39 44 43 28 31 36 31 27 28 27 27 29 33 33 33 34 33 34 35 35 33 34 36 33 32 31 29 31 30 30 30 31 32 33 34 35 35 37 40 41 43 44 45 48
42 50 47 43 31 43 50 49 41 35 39 36 29 27 29 30 29 35 32 31 30 31 32 34 34 34 37 38 35 34 32 32 32 31 31 32 32 32 32 33 36 38 40 39 40 42 44 46 48
48 51 53 47 38 48 52 55 50 40 37 36 35 31 27 28 28 32 33 31 28 30 33 35 36 37 37 36 35 34 35 35 33 33 33 34 36 35 35 36 37 37 38 40 41 43 44 45 45
50 50 51 49 44 51 54 56 52 46 38 32 33 30 29 32 32 33 34 34 32 33 33 34 37 38 36 37 36 34 35 34 34 35 37 39 39 37 37 38 37 38 39 39 40 42 43 45 46
47 50 49 54 52 52 54 58 47 40 38 35 33 33 33 34 36 35 35 37 37 36 38 37 36 37 36 37 36 36 36 36 37 39 41 42 41 41 42 42 42 42 41 41 42 44 45 45 45
51 43 51 54 56 58 54 56 46 40 42 38 38 33 30 34 34 34 35 38 39 40 39 39 40 42 38 39 39 39 40 39 41 43 42 41 41 43 44 45 45 45 44 45 45 46 46 46 46
52 50 51 53 56 59 61 62 55 46 41 40 31 34 32 28 31 34 36 39 39 39 39 38 36 39 42 43 43 42 41 41 43 42 42 43 44 46 47 48 47 47 48 49 49 48 47 47 47
50 53 49 51 55 62 58 57 48 53 48 43 44 39 41 35 32 34 35 36 37 39 41 43 43 44 46 46 44 42 42 44 46 46 44 45 46 50 52 52 51 52 54 53 52 52 50 49 49
48 52 58 62 60 62 61 57 52 55 58 55 52 48 44 44 46 42 38 36 38 40 43 46 46 47 47 43 40 41 44 47 49 49 49 48 49 53 58 58 58 57 59 58 57 56 56 54 55
57 58 61 65 65 64 62 66 54 60 59 61 59 57 61 51 47 50 42 38 36 30 35 40 40 42 46 46 48 48 50 52 54 54 54 54 49 50 54 59 62 63 63 60 57 54 53 53 54
61 66 60 63 65 69 70 69 62 61 62 65 62 58 60 62 49 48 45 33 38 41 36 36 44 47 47 47 49 51 54 56 59 58 55 53 50 50 53 57 59 60 61 60 59 59 56 53 54
58 56 60 66 71 72 72 74 69 65 65 67 65 62 61 61 55 24 25 34 45 51 44 44 46 54 56 51 53 57 59 58 60 61 58 55 53 51 52 57 58 58 58 58 56 53 57 59 61
52 55 59 64 72 75 77 70 59 63 64 63 61 60 60 52 50 50 53 53 54 50 45 44 52 52 56 57 54 56 58 59 59 60 62 60 55 51 53 56 56 57 56 55 56 59 58 62 65
61 54 50 56 59 68 75 78 45 56 57 58 62 58 56 56 50 47 53 55 56 49 49 57 59 58 62 62 58 57 57 57 59 60 56 55 54 55 54 53 54 55 51 58 59 63 63 65 68

GFSSGP_500_spd_012.txt.gz
Wind_Speed
11 11 12 12 12 11 10 10 9 8 9 9 9 8 8 7 7 8 8 8 7 6 6 6 3 3 3 1 4 5 7 7 9 9 10 10 8 7 9 8 7 5 5 2 1 2 3 2 2
8 9 10 10 11 11 9 9 8 8 7 6 8 9 9 8 7 8 8 10 11 9 7 8 7 6 5 4 2 3 4 4 5 6 7 8 8 7 7 7 7 5 4 5 4 3 3 2 2
8 9 10 10 11 12 11 10 8 8 6 6 6 7 8 10 9 8 7 8 11 12 11 10 9 9 9 8 7 6 5 6 6 5 5 6 6 7 7 6 6 4 4 3 3 3 3 4 5
8 9 9 11 11 11 12 12 12 11 9 8 9 9 8 8 9 8 8 7 7 10 12 13 12 11 11 11 11 9 9 8 7 6 6 6 7 7 7 7 7 6 5 5 5 6 5 6 7
9 9 9 9 11 12 13 14 13 12 12 14 12 11 9 9 7 7 7 7 6 7 10 12 15 15 14 14 14 13 12 11 10 10 10 10 9 8 8 8 9 9 8 8 9 8 8 9 10
10 11 12 12 11 11 12 13 13 14 13 12 13 14 13 11 11 10 7 5 6 6 6 8 12 15 18 17 17 17 16 16 15 15 13 13 13 12 12 12 11 11 11 10 10 11 11 11 12
16 16 17 17 17 14 13 14 14 15 16 16 14 16 14 13 13 13 11 11 8 7 8 8 8 10 14 17 19 20 20 20 19 19 18 18 17 17 16 16 16 15 15 15 16 15 16 15 15
20 20 20 20 20 20 18 17 16 16 17 17 18 16 18 15 14 13 14 14 14 14 13 12 10 11 11 13 15 18 21 22 22 23 22 22 22 21 20 20 20 20 20 20 21 21 21 21 20
25 23 22 25 23 22 23 21 19 19 19 19 22 22 19 19 18 17 16 17 16 16 15 16 15 15 14 13 14 16 18 19 21 23 25 25 24 24 24 24 24 24 24 25 25 25 25 25 24
27 25 24 28 27 26 25 24 24 23 23 23 24 25 22 21 23 23 21 20 20 20 19 19 17 17 17 18 18 18 19 19 20 22 24 24 26 27 27 28 27 27 27 27 28 28 28 28 28
28 26 28 29 31 30 27 27 27 27 24 26 25 27 27 23 23 27 28 26 25 24 23 24 23 21 20 21 21 21 22 23 24 23 23 25 26 27 29 31 32 32 32 31 31 31 31 32 32
31 28 30 28 32 31 31 28 28 29 27 30 29 31 30 29 27 30 31 31 30 29 30 29 28 26 26 26 25 25 26 26 25 26 26 27 27 28 30 31 32 32 32 33 33 33 34 34 34
34 31 30 28 30 32 33 28 34 25 26 32 33 28 29 28 28 30 31 33 34 35 34 34 34 32 31 29 29 28 28 29 29 27 27 29 30 30 30 30 31 31 31 32 33 33 34 34 35
36 34 32 30 30 33 35 30 40 22 33 29 32 29 30 26 26 25 27 29 32 35 37 38 37 36 34 34 33 33 32 32 32 32 31 31 31 32 33 32 31 31 31 32 32 32 31 32 33
41 41 36 29 31 37 41 40 32 31 34 30 32 32 32 30 28 25 26 27 30 33 36 38 38 37 36 36 36 35 35 35 34 34 34 32 31 33 35 35 35 34 32 32 33 31 32 32 32
45 47 40 29 34 39 47 49 30 36 39 38 35 36 36 33 32 30 30 30 33 35 34 35 34 34 35 36 37 37 36 36 34 35 35 34 34 33 35 35 35 33 33 32 32 32 35 36 36
46 52 50 42 29 40 46 48 36 35 40 43 41 41 42 39 38 35 37 38 38 39 37 34 34 34 36 35 36 37 36 35 34 36 35 36 36 35 36 36 35 35 34 34 35 37 39 41 42
49 51 50 48 35 41 51 50 45 41 40 36 37 36 40 42 39 38 42 43 42 42 38 38 38 37 38 38 36 35 35 35 37 38 37 39 39 38 36 37 37 37 36 36 36 38 41 42 42
50 52 52 48 45 52 49 50 47 39 38 31 33 36 36 36 36 36 40 42 45 46 41 38 37 37 38 38 37 38 36 36 39 41 40 41 40 40 39 38 39 38 38 36 39 41 42 42 41
50 52 52 53 51 53 54 53 49 43 35 36 30 25 29 28 29 31 36 38 41 45 43 39 39 41 42 43 41 39 39 39 39 40 40 40 40 39 38 41 42 40 38 38 40 40 41 40 41
50 52 51 55 55 55 55 54 52 40 38 30 35 37 31 35 36 35 39 42 44 45 46 45 44 45 45 46 45 45 43 42 42 39 41 43 43 42 43 44 41 41 41 42 42 41 40 41 40
51 45 49 51 55 55 54 55 52 45 38 37 33 36 29 26 25 29 30 33 38 41 41 46 47 47 47 49 50 48 47 47 46 45 47 46 45 44 42 42 44 44 45 44 43 42 42 42 40
55 52 49 50 54 58 57 58 54 53 54 47 42 41 42 43 41 40 40 44 41 44 46 44 45 46 45 47 49 51 51 50 49 51 52 50 49 47 46 46 46 46 45 44 44 43 41 42 44
52 55 55 53 53 60 58 56 58 56 56 56 57 56 55 57 58 56 51 44 45 47 48 49 50 48 48 47 45 46 49 50 51 51 53 53 52 49 46 45 46 47 45 45 45 47 48 47 47
48 52 58 62 61 58 60 61 61 61 59 61 60 61 65 65 64 62 60 58 57 52 51 54 55 56 50 49 51 47 48 49 53 55 53 52 54 51 47 48 47 47 47 48 49 50 50 50 48
58 60 63 64 65 65 64 67 61 60 60 61 64 65 68 66 63 65 62 62 64 64 62 58 61 60 57 52 51 52 50 50 53 51 49 49 48 49 49 48 47 49 50 50 51 53 52 52 51
64 63 59 63 62 67 69 70 68 62 62 64 65 64 62 61 66 70 68 64 60 62 57 42 45 54 61 55 53 52 56 49 45 47 49 50 53 48 47 48 50 50 51 52 54 56 55 56 55
68 68 66 67 67 73 76 76 74 65 64 68 68 65 63 60 59 61 64 65 65 63 52 57 55 48 50 55 57 58 53 48 46 48 51 51 53 53 55 58 57 55 53 52 54 55 56 57 58
71 73 72 65 60 62 71 79 68 68 66 66 64 65 68 65 63 61 52 59 62 62 60 56 58 55 54 58 63 63 62 59 56 55 58 62 64 67 69 65 62 58 53 52 51 52 57 59 59
72 71 68 63 70 75 76 75 68 67 68 65 64 65 66 68 67 59 62 62 59 60 53 56 56 55 58 61 65 63 63 60 65 68 67 65 68 70 67 66 64 61 57 56 55 56 58 59 61

GFSSGP_500_spd_015.txt.gz
Wind_Speed
10 10 10 11 13 13 11 10 8 9 9 8 7 7 6 5 6 7 8 8 7 5 3 1 0 1 2 2 5 6 7 9 11 11 12 13 13 13 14 14 12 11 11 10 10 9 10 8 7
9 10 11 13 14 14 13 12 9 9 9 8 7 7 7 7 6 5 6 8 10 9 7 5 3 3 3 1 2 4 5 6 8 9 8 9 11 13 13 13 14 12 11 10 9 9 8 7 7
9 10 11 12 13 13 13 13 13 12 10 8 7 7 8 8 7 6 4 4 7 10 11 9 8 6 5 6 6 5 6 6 6 6 7 8 9 10 10 11 12 12 11 10 8 8 8 8 7
9 10 11 13 13 13 13 13 12 12 11 11 10 10 10 9 8 8 6 4 3 5 8 11 11 11 9 9 8 9 9 8 7 8 8 8 9 10 11 11 11 11 11 11 10 9 8 8 7
8 8 10 11 11 13 14 14 13 12 11 12 12 12 11 11 11 8 8 7 5 5 5 7 10 12 13 13 12 11 11 11 12 11 9 10 9 10 11 11 11 10 10 11 11 11 10 9 10
10 11 12 12 12 13 12 12 13 13 12 11 11 13 12 11 10 9 8 8 8 8 6 6 7 9 12 15 16 15 15 14 14 13 13 13 12 12 12 12 12 13 12 11 11 10 9 9 9
15 14 15 16 15 16 15 15 14 14 15 14 12 14 14 13 12 11 9 8 9 10 10 9 9 10 11 13 15 17 18 18 18 18 17 17 17 17 15 16 16 16 15 15 14 13 12 12 11
19 18 17 19 19 19 18 17 18 17 17 17 19 17 17 16 16 15 15 14 12 11 11 11 12 12 12 13 13 14 17 19 20 20 21 21 20 21 20 20 20 20 20 19 19 18 18 17 17
23 22 20 24 22 21 20 20 20 19 20 21 24 22 20 17 19 20 20 20 18 17 15 14 15 13 14 15 15 15 17 17 18 20 21 23 23 23 23 24 24 23 23 24 24 24 24 23 23
26 23 23 25 27 25 24 22 24 22 22 25 24 28 23 23 21 23 25 25 23 22 20 20 20 18 17 17 17 17 18 19 19 20 21 22 23 25 26 26 27 27 27 27 27 27 27 26 26
26 24 25 25 29 29 26 24 26 26 22 27 28 28 28 28 27 27 28 31 29 27 26 26 26 24 22 21 20 21 21 21 22 24 24 23 24 25 26 27 28 29 30 30 31 31 31 30 30
28 26 27 26 29 30 29 27 28 31 23 31 31 31 30 32 31 29 28 30 34 33 33 32 31 30 28 27 26 26 25 25 25 27 25 25 27 28 27 28 30 32 33 34 34 34 34 33 33
31 28 27 26 28 30 33 29 36 30 29 30 31 27 30 30 30 27 24 27 30 33 36 37 37 35 34 31 31 31 30 29 29 28 29 28 28 27 29 31 32 32 32 34 34 35 34 35 36
35 34 31 30 32 35 38 33 36 26 38 32 32 29 30 28 29 27 27 26 26 29 32 35 37 38 38 36 35 34 34 34 33 32 32 32 32 31 31 33 34 35 34 33 34 33 33 33 34
43 41 36 31 34 42 43 38 31 31 38 37 33 32 34 33 32 30 30 29 29 30 32 34 35 35 35 35 34 35 36 37 36 36 36 35 34 34 33 33 35 37 37 37 35 34 35 36 36
45 47 43 34 38 42 46 44 31 35 37 38 36 35 38 37 36 36 36 37 36 36 35 34 35 34 31 31 31 32 33 36 36 37 38 36 36 36 35 34 36 36 38 38 38 38 38 38 36
46 52 50 44 34 42 48 47 37 35 38 34 33 33 34 37 37 37 41 44 43 41 41 38 36 32 34 34 33 32 32 35 35 35 36 37 37 37 37 37 37 38 38 38 39 39 40 39 39
50 52 51 49 38 41 51 50 43 38 38 34 34 34 34 34 32 36 40 41 42 43 42 40 39 36 36 35 35 35 35 36 34 34 35 37 38 39 39 40 39 37 37 39 41 41 41 42 42
51 53 55 48 44 52 47 50 45 38 38 34 32 31 35 35 30 33 36 36 36 38 41 41 39 39 38 37 35 37 37 39 38 37 37 37 39 41 42 42 42 40 40 42 43 42 42 43 44
52 55 53 52 48 52 51 50 49 46 35 35 32 30 33 28 30 35 33 37 39 38 38 37 36 36 38 40 42 42 39 38 39 39 39 41 40 41 42 42 41 40 43 45 44 43 44 44 45
53 54 54 57 52 53 55 57 54 46 42 33 37 38 36 37 31 32 31 29 32 34 35 36 37 37 38 40 42 46 47 45 44 42 45 47 47 46 46 46 43 42 44 47 46 46 46 46 46
55 46 53 54 56 57 56 60 56 54 50 45 42 39 34 28 31 30 33 28 29 38 41 40 36 38 39 41 42 41 43 48 50 50 49 50 50 49 50 49 47 45 43 43 46 48 48 48 47
51 52 52 54 55 62 60 61 62 64 56 55 49 44 40 41 41 42 43 45 44 42 43 48 49 45 42 41 42 43 44 44 48 52 54 54 54 53 52 50 50 49 47 48 49 50 50 49 46
57 59 60 60 61 62 63 59 62 64 63 58 48 42 49 45 46 51 53 52 51 50 47 46 50 52 48 45 46 46 46 46 46 48 56 58 58 58 54 50 51 51 49 51 52 52 52 50 48
54 58 62 66 66 66 62 64 65 65 60 62 57 48 48 54 58 60 58 57 57 53 55 55 52 55 57 58 54 52 50 50 50 51 52 58 59 56 56 55 55 53 52 53 55 54 53 51 49
58 56 56 62 65 67 67 71 67 67 66 61 63 58 59 62 63 66 67 65 62 58 57 54 55 57 62 64 64 63 58 57 58 57 56 57 61 62 61 60 60 56 54 54 54 53 51 52 53
61 64 60 65 65 68 71 71 67 67 66 66 67 67 66 66 66 69 70 70 70 65 63 62 58 58 56 55 56 61 64 65 62 62 65 64 64 64 63 61 57 56 56 53 54 52 50 51 53
62 62 64 64 64 67 70 70 68 68 71 74 73 73 73 73 69 69 71 72 72 71 68 64 53 48 49 51 53 60 61 61 61 66 70 69 67 68 65 59 57 56 58 56 54 54 54 52 52
64 67 66 61 62 65 68 70 64 64 65 68 71 72 73 72 71 70 67 67 65 66 69 67 60 54 54 52 57 61 65 64 63 64 69 72 70 65 64 61 60 57 61 62 61 59 60 57 55
67 66 61 62 61 66 68 70 59 63 66 67 73 78 75 73 70 71 72 72 70 68 66 67 63 63 62 62 60 61 63 65 68 70 69 68 66 61 59 63 63 61 65 67 71 72 67 63 58

GFSSGP_500_spd_021.txt.gz
Wind_Speed
7 8 10 11 12 13 12 10 9 8 7 7 8 9 10 9 9 8 7 5 7 5 4 3 2 1 0 1 2 4 7 9 10 12 13 15 15 14 14 16 20 16 14 16 17 16 17 16 16
6 7 8 9 9 11 10 9 8 7 8 7 6 6 6 7 7 7 7 7 7 8 8 7 6 6 5 4 3 4 6 7 8 8 9 9 11 15 17 18 17 15 15 16 16 17 18 17 18
5 6 7 8 9 8 7 7 7 7 6 6 5 5 5 5 6 7 7 7 7 8 9 10 9 9 9 8 7 7 6 6 6 8 9 10 11 11 13 16 17 18 18 18 18 18 18 18 19
5 6 7 8 9 8 7 7 6 6 7 8 7 5 6 7 5 6 6 6 6 6 8 9 12 12 12 12 12 12 11 11 10 10 9 10 11 11 12 13 14 14 16 17 17 17 18 19 18
9 9 10 12 11 11 11 11 9 9 10 11 11 10 8 7 8 7 6 7 7 7 6 7 9 11 14 15 14 15 16 14 14 14 13 13 13 13 13 14 15 15 16 16 16 15 15 16 16
12 13 13 14 16 16 16 15 14 14 14 14 15 16 14 12 11 12 11 10 9 9 10 8 8 9 10 14 16 17 17 18 18 18 17 16 16 15 16 16 16 16 16 16 16 15 15 16 16
16 17 17 16 17 18 19 19 19 20 20 19 19 20 20 19 17 16 16 15 14 13 12 12 12 12 11 11 13 16 18 20 20 20 20 20 20 19 19 19 19 19 20 20 20 19 19 19 19
20 19 19 19 20 21 20 21 21 21 24 24 22 22 24 22 23 22 21 21 20 18 17 16 16 15 14 14 14 13 15 17 20 21 22 23 22 23 24 24 24 24 24 23 23 23 22 21 20
22 21 21 21 21 23 21 23 21 23 24 26 23 25 26 25 25 26 27 25 25 24 22 22 21 21 19 17 17 16 16 16 16 18 20 21 22 24 25 27 28 28 28 28 27 26 25 25 25
23 21 23 23 24 23 24 23 24 23 24 26 25 26 25 25 26 27 29 29 29 29 28 27 25 26 25 23 22 20 19 18 19 19 20 19 20 21 22 25 27 29 30 31 31 30 29 28 28
21 21 24 24 27 27 26 26 24 25 22 27 31 28 28 26 23 24 26 29 31 31 32 32 30 28 28 29 29 26 24 23 23 22 23 22 22 23 24 25 24 26 28 30 32 33 34 33 32
25 26 28 28 29 29 30 29 29 28 22 31 31 29 29 28 25 25 27 27 29 31 32 31 30 28 28 31 33 32 30 29 28 28 27 27 26 26 27 27 27 28 28 28 29 32 34 35 35
30 31 33 32 31 31 33 31 38 26 29 34 33 31 31 30 29 29 28 29 28 28 28 29 29 29 29 29 32 32 34 33 33 32 31 32 31 31 31 31 31 30 29 29 30 31 32 33 35
36 35 33 32 33 35 37 33 39 28 37 34 35 35 34 34 33 33 34 31 29 29 30 31 30 32 31 28 27 27 28 30 32 33 34 36 35 35 36 35 35 34 34 33 32 32 33 34 35
37 39 36 33 36 39 43 33 34 36 38 36 36 35 35 36 37 38 37 33 33 31 31 32 34 35 34 33 32 29 28 28 27 29 31 33 35 36 37 38 38 38 37 36 36 36 35 35 36
41 44 42 36 34 42 48 45 32 38 39 36 34 34 37 35 40 44 40 37 36 35 34 33 34 37 38 38 37 35 34 31 28 29 29 30 33 34 36 37 38 40 40 40 39 39 38 37 36
46 49 46 43 35 41 50 52 40 35 38 36 34 36 38 39 43 42 41 41 41 39 36 34 33 34 38 40 39 39 38 36 35 32 30 32 35 37 38 37 38 39 40 40 40 41 41 39 38
49 50 50 51 40 43 52 50 48 41 39 36 34 36 38 39 39 41 41 41 43 42 38 35 35 36 38 41 42 40 40 40 40 39 35 36 38 41 41 39 39 39 39 38 39 40 43 42 41
49 52 53 51 51 55 51 51 52 52 44 40 36 35 37 39 39 39 41 41 39 38 39 39 36 33 34 37 39 41 41 42 42 43 42 40 40 42 44 41 42 40 39 40 41 42 43 44 44
49 54 57 56 56 58 57 56 50 50 46 39 37 38 41 42 40 41 42 43 42 39 37 39 40 41 39 38 41 41 42 42 42 44 45 44 44 43 44 43 44 43 46 46 45 44 44 45 46
53 55 56 58 59 59 64 61 58 54 50 45 44 44 42 40 41 41 43 46 45 44 43 42 42 45 44 40 39 41 41 42 46 45 46 44 48 48 49 50 50 48 49 49 49 48 47 46 46
53 52 56 58 59 62 66 69 62 60 60 61 57 53 52 48 45 46 46 46 50 47 46 43 41 40 41 43 38 37 38 42 43 42 43 45 49 52 54 54 53 52 52 52 51 52 52 51 49
53 54 54 55 59 62 62 66 66 63 64 64 60 56 55 55 52 50 49 44 46 47 44 44 47 48 45 46 48 49 49 45 48 46 45 46 47 50 52 54 56 55 53 53 54 55 56 57 57
51 54 54 55 56 60 61 60 63 62 61 65 65 63 55 42 38 39 40 44 46 45 45 52 54 55 55 54 53 54 53 52 51 52 53 52 50 51 53 55 56 56 56 57 58 59 60 62 62
53 55 60 60 60 62 59 63 63 65 62 64 61 61 49 43 39 41 42 46 51 51 59 63 61 60 61 61 60 59 59 56 55 54 54 56 58 58 58 58 58 60 61 61 62 63 63 63 64
55 54 56 61 61 64 61 68 66 67 66 65 65 62 60 55 55 53 51 54 64 72 74 68 64 62 65 67 67 68 66 63 61 61 60 60 61 62 65 66 67 67 67 68 68 68 68 67 67
54 54 55 60 58 64 65 66 63 63 67 66 66 69 71 70 69 67 62 64 67 68 68 63 65 65 65 68 72 73 72 72 70 67 66 66 69 70 66 70 73 73 73 74 74 73 73 72 71
52 52 52 53 58 63 62 64 65 61 66 66 66 66 69 70 69 65 63 61 58 58 61 67 67 65 63 65 65 66 69 69 70 70 70 70 74 73 72 72 73 75 76 77 77 76 76 76 74
55 57 57 58 62 65 64 61 61 59 61 64 66 65 67 70 69 67 66 65 66 65 67 69 71 70 70 70 70 74 73 69 71 73 74 74 77 78 77 78 77 75 75 79 80 82 81 78 74
59 56 55 54 58 61 58 50 51 60 61 62 64 69 73 73 73 76 75 75 74 73 75 76 77 77 74 73 74 76 73 70 76 79 78 77 76 77 79 84 84 83 81 79 79 77 79 81 77

GFSSGP_500_spd_024.txt.gz
Wind_Speed
7 8 9 10 10 11 13 11 10 9 7 7 8 8 7 8 9 10 9 6 7 8 5 4 5 5 4 4 2 2 5 8 10 12 12 13 12 12 14 15 18 17 15 17 16 15 13 11 12
5 6 7 7 8 11 10 10 9 8 8 7 6 7 8 8 7 8 9 9 8 8 9 8 6 6 7 5 3 3 4 5 7 8 10 11 13 16 15 14 16 17 15 15 15 16 16 14 15
5 6 7 7 8 9 8 8 9 10 9 8 7 7 7 7 8 7 6 7 8 8 9 9 10 9 9 9 8 6 4 4 5 7 8 8 10 12 15 16 16 17 17 16 15 15 17 15 17
7 8 10 10 10 9 7 7 10 10 11 12 11 9 9 7 7 9 9 8 7 7 8 8 9 11 12 12 12 11 10 9 9 8 7 8 9 9 10 12 16 17 18 17 17 17 17 17 18
10 11 12 13 14 13 11 11 12 12 13 13 14 15 11 11 10 10 10 10 9 8 8 9 9 9 11 14 14 14 14 14 13 12 12 11 10 11 11 11 12 12 14 16 16 17 17 16 16
13 15 15 16 17 16 15 16 17 17 17 16 18 19 19 17 14 14 14 13 13 12 10 10 10 10 10 10 13 16 17 17 17 17 16 15 14 14 14 13 13 13 14 15 15 16 14 14 15
17 17 17 18 19 20 17 18 20 21 20 20 19 21 22 19 21 20 18 18 17 16 15 13 12 12 12 12 11 12 15 18 20 19 19 19 18 17 17 17 16 17 17 18 18 17 17 17 18
20 19 18 18 20 21 18 20 20 21 22 21 21 22 21 20 22 23 24 22 21 20 20 19 18 16 15 14 13 14 13 14 16 20 21 22 21 21 21 21 21 21 21 21 21 21 22 22 22
23 21 19 21 21 23 21 19 23 22 20 23 21 23 25 21 23 24 24 25 24 24 23 23 22 22 21 19 18 17 15 15 17 16 16 19 21 23 24 24 25 26 26 25 26 26 26 26 25
24 21 21 21 22 23 25 25 24 23 23 23 28 23 22 22 24 23 24 25 25 25 26 26 26 25 25 24 23 22 21 20 19 19 19 18 17 18 19 21 23 25 27 28 30 30 30 29 28
23 23 23 21 25 24 27 27 28 27 20 30 27 28 27 26 22 22 25 24 24 23 23 25 26 27 27 27 26 27 26 25 24 23 22 21 20 20 21 21 21 22 22 24 27 30 32 32 33
24 26 26 26 30 30 31 31 31 30 25 29 33 30 29 28 30 29 26 28 25 23 22 22 23 23 25 25 25 26 27 29 29 28 26 27 26 24 25 25 24 24 24 24 26 26 27 29 32
28 27 29 34 32 31 32 31 35 27 32 29 31 31 32 31 33 35 31 30 29 29 27 23 23 23 24 26 27 26 26 27 30 31 30 30 30 30 31 30 30 28 28 26 28 27 27 27 28
32 32 33 32 34 35 34 32 36 30 32 31 33 33 34 34 35 37 38 33 31 29 29 28 25 27 27 27 29 29 28 27 27 28 28 29 31 32 34 34 34 34 33 31 31 30 30 30 29
35 37 34 33 38 41 39 31 33 35 33 32 31 33 36 37 36 38 37 35 33 33 31 30 30 29 31 32 32 32 32 31 29 29 28 27 28 29 31 33 35 35 36 36 36 35 34 33 33
40 41 40 37 40 41 43 41 33 36 34 35 31 33 36 37 42 43 36 35 36 37 35 34 34 33 33 36 36 36 37 37 35 33 33 30 30 32 31 33 34 36 36 37 38 38 37 37 36
41 46 45 47 44 41 44 46 39 32 37 36 34 38 39 39 43 40 39 37 38 39 38 38 36 36 34 34 36 37 36 37 39 39 38 37 36 37 35 36 37 39 38 39 38 38 40 40 39
46 46 49 50 47 48 47 48 48 45 39 38 40 38 38 45 39 37 40 38 37 38 39 39 40 38 37 38 38 40 41 40 40 43 42 41 39 41 41 40 41 42 41 41 39 40 41 41 41
52 53 52 51 48 50 48 47 50 51 50 42 39 40 42 42 34 38 39 41 42 41 41 39 39 39 37 39 42 40 37 39 38 38 43 44 42 43 44 44 44 44 44 44 43 40 41 41 42
53 58 55 52 52 53 52 53 47 46 46 48 50 46 42 41 41 39 39 42 43 43 41 39 39 40 42 42 40 41 43 43 43 41 41 43 43 43 45 47 47 47 46 46 45 44 45 46 45
50 50 51 53 51 50 56 58 56 52 47 50 50 46 43 41 42 44 45 46 46 47 47 46 44 44 45 45 45 46 46 47 47 48 45 42 43 46 46 46 47 48 49 50 49 47 48 49 48
45 45 49 52 55 56 57 62 59 55 58 61 57 48 45 44 43 42 42 44 45 49 49 51 48 47 46 46 45 44 45 44 46 46 42 44 46 45 45 47 49 50 48 51 52 52 50 53 52
48 46 46 47 51 56 55 57 61 59 61 61 58 56 52 49 47 44 45 45 43 42 45 47 48 49 46 40 41 42 46 49 49 49 49 50 49 50 51 50 51 51 51 50 50 50 50 51 52
46 47 49 51 52 57 56 59 62 60 58 58 57 58 58 55 53 51 45 35 38 40 42 48 52 56 51 49 46 47 49 55 55 59 62 59 55 56 56 57 57 57 57 56 54 53 54 53 53
47 50 53 55 55 57 58 60 59 58 61 61 60 59 56 55 52 43 38 44 43 44 44 50 55 63 60 55 52 56 59 62 64 65 62 62 62 60 59 62 63 64 63 63 63 60 58 58 60
50 50 49 53 56 58 54 58 56 55 56 59 60 61 61 60 56 52 51 53 52 53 57 53 59 65 63 64 63 65 75 74 69 69 69 69 69 67 63 64 65 67 68 68 68 68 66 66 66
51 49 49 53 55 57 59 59 55 54 58 59 62 63 61 60 60 60 62 64 63 62 62 60 61 66 69 75 79 81 81 73 72 74 75 76 77 74 69 67 67 69 72 74 73 72 74 74 75
47 48 50 51 53 57 59 58 56 55 58 58 59 60 63 63 62 64 66 67 68 66 66 66 64 66 71 78 82 81 73 73 73 73 75 74 74 74 75 73 72 72 77 78 81 78 76 77 78
48 49 51 52 55 58 60 59 53 57 57 58 61 64 62 61 62 66 68 68 68 70 71 72 74 72 69 74 78 74 75 77 79 74 72 73 74 76 77 76 78 79 77 80 84 87 82 78 77
51 52 53 57 58 58 56 51 42 47 54 54 55 60 60 63 65 68 69 70 72 74 79 84 83 79 75 81 81 84 85 82 82 83 77 76 76 78 79 79 82 83 85 83 83 85 87 86 81

GFSSGP_500_spd_027.txt.gz
Wind_Speed
7 8 8 9 12 11 13 13 12 9 9 9 9 9 10 10 10 10 9 7 6 5 6 6 6 6 5 6 5 3 2 5 8 10 11 11 11 11 12 14 16 14 14 15 13 13 12 12 11
5 6 6 8 10 11 11 10 10 9 9 8 8 9 9 9 9 9 9 9 8 6 5 6 7 7 6 4 4 3 2 2 4 7 10 12 13 13 12 12 12 14 14 15 13 14 15 15 13
6 5 6 8 9 11 12 10 10 11 11 10 10 9 9 10 9 9 10 9 9 9 8 5 5 8 8 8 7 5 4 4 4 5 6 7 9 11 13 14 14 14 17 17 15 15 15 15 15
6 7 8 10 11 12 12 11 11 11 13 14 13 11 12 10 10 10 10 10 9 9 8 8 7 6 8 10 10 10 9 8 8 7 6 7 7 9 11 13 16 15 17 18 17 16 17 15 16
10 11 13 13 12 12 12 12 13 13 13 15 17 16 14 13 12 12 13 12 11 10 10 9 8 8 7 8 12 13 13 13 12 12 11 10 9 9 10 11 11 12 16 17 17 17 16 16 15
13 14 16 17 16 13 13 13 14 14 15 15 18 19 17 17 16 15 14 15 14 12 12 12 10 9 9 9 8 10 14 16 15 16 15 14 14 13 13 13 12 12 13 14 15 16 17 16 16
15 16 18 20 20 18 15 16 16 17 17 16 17 18 16 17 19 18 17 16 16 17 15 15 14 13 12 10 10 10 10 11 16 18 18 18 18 17 17 16 15 15 15 15 15 16 16 16 16
20 18 20 22 21 20 18 15 17 16 19 17 20 20 17 15 17 18 18 18 17 16 18 17 18 18 17 15 14 13 12 12 12 13 16 21 21 21 21 20 20 19 19 19 19 19 19 19 19
22 21 21 22 21 20 19 18 17 19 19 20 18 21 21 17 17 18 20 19 18 17 19 20 20 20 21 20 19 18 17 16 15 15 15 14 17 21 23 23 23 23 24 24 23 24 23 23 23
23 21 21 22 22 20 23 23 23 21 19 24 23 24 23 21 20 21 19 19 19 19 19 21 22 22 23 23 23 22 21 20 20 19 19 18 18 18 18 20 22 23 24 26 28 28 28 28 27
21 20 22 23 24 22 23 26 31 29 20 27 26 26 29 28 24 21 21 23 20 21 22 21 22 20 22 24 25 24 24 23 23 24 24 23 21 20 21 21 21 21 22 22 24 25 28 30 31
21 22 23 26 26 27 28 29 30 27 28 25 26 29 29 32 33 30 25 22 24 22 24 24 23 20 20 22 22 23 23 23 23 24 27 29 27 26 25 25 24 24 24 24 25 25 27 27 28
22 24 25 28 29 31 32 30 28 29 28 29 27 28 31 34 35 36 33 29 25 24 21 22 22 23 24 23 23 24 25 25 25 24 25 29 32 31 29 30 29 29 28 28 29 28 28 28 29
27 28 29 28 30 32 33 29 30 31 29 27 28 30 31 34 37 34 34 35 33 28 26 25 23 25 26 25 27 28 27 29 30 28 27 26 30 33 32 33 33 33 33 32 33 33 32 31 31
33 33 32 33 36 36 37 32 34 33 30 28 29 31 32 38 37 33 33 35 34 33 31 31 28 27 28 30 29 30 31 32 33 33 32 29 28 30 32 33 32 34 35 35 36 36 35 35 35
36 39 36 35 37 39 40 39 31 33 33 28 29 31 35 36 36 35 34 34 34 34 34 32 32 33 30 32 35 35 36 36 35 36 37 36 34 33 34 35 34 35 35 36 37 37 37 38 38
39 42 39 38 37 39 42 42 39 28 31 29 29 34 36 36 35 32 32 34 35 35 35 35 33 31 34 34 36 37 38 38 38 37 38 39 39 40 40 40 39 39 39 40 40 39 39 40 40
40 40 41 43 44 45 47 44 44 43 38 35 37 36 34 33 34 34 34 34 34 36 36 36 36 35 34 37 35 36 39 40 41 40 41 41 42 41 43 43 45 45 43 43 44 45 43 41 41
42 44 46 46 48 50 44 45 41 42 41 41 41 38 37 39 40 40 38 37 37 36 37 37 38 38 37 37 38 37 38 40 42 45 42 40 41 44 44 45 47 49 48 47 48 49 48 45 43
47 50 49 49 47 47 45 45 39 37 44 44 43 40 36 35 35 39 41 42 43 42 42 42 40 39 39 38 40 42 42 42 41 44 46 45 43 42 42 43 46 48 49 49 50 51 50 49 46
42 43 43 46 43 43 48 47 43 40 42 40 42 42 42 40 36 35 35 38 40 40 40 39 40 41 42 43 44 44 47 50 49 48 49 51 49 46 42 42 45 48 47 46 49 51 53 52 49
39 41 41 42 44 47 46 53 48 51 53 52 49 49 48 46 45 43 40 37 38 41 42 44 44 41 39 40 44 46 49 50 51 50 48 49 50 51 48 43 44 48 48 47 49 51 51 54 53
42 42 42 41 45 52 47 52 54 54 54 53 54 53 51 49 46 43 42 42 41 40 41 44 44 44 43 43 45 48 52 53 53 53 50 48 49 50 53 53 50 50 52 52 53 52 53 53 54
46 46 45 47 48 52 51 54 56 55 53 52 52 51 50 49 47 47 47 46 47 45 42 39 44 48 49 50 51 54 56 55 57 56 53 52 52 53 56 58 60 61 60 58 56 57 58 58 58
44 45 47 51 52 53 54 54 53 52 54 55 55 55 53 51 51 51 52 53 51 48 45 47 48 48 50 53 55 58 60 64 64 66 63 62 56 54 58 60 64 68 67 65 64 64 62 63 63
48 46 46 50 52 53 51 53 50 52 54 56 54 53 53 54 55 57 57 56 54 52 53 53 56 56 57 57 61 61 67 69 68 68 74 73 74 73 70 64 67 73 73 72 70 69 69 70 68
50 51 52 53 50 51 52 50 50 51 52 52 53 54 56 59 61 63 62 61 60 60 58 60 63 67 65 63 70 72 73 74 76 77 78 82 85 84 82 75 73 77 79 78 77 76 76 75 75
47 47 48 49 51 53 52 49 50 51 49 51 54 55 57 59 63 63 62 64 65 65 65 59 64 66 67 69 69 68 74 76 80 82 81 78 84 91 90 84 82 83 80 80 82 82 80 80 80
45 44 46 48 51 54 56 54 52 50 52 55 55 54 55 57 60 62 67 68 66 69 67 65 69 65 64 65 66 71 74 76 79 83 85 86 84 86 83 82 86 91 79 77 81 81 79 82 84
47 45 48 53 55 55 57 56 51 51 55 54 53 54 58 60 65 65 63 64 68 71 72 74 78 79 78 83 84 86 83 83 87 82 86 85 89 90 91 92 92 90 83 84 83 81 82 83 82

GFSSGP_500_spd_030.txt.gz
Wind_Speed
6 7 9 10 12 11 10 10 11 10 9 9 9 9 10 10 10 10 9 10 8 6 5 5 5 5 5 5 6 5 3 1 6 9 10 10 11 11 11 12 13 14 13 10 12 10 10 10 11
4 5 6 8 10 8 11 11 10 10 9 8 7 8 8 9 9 9 9 9 9 9 7 5 5 5 5 4 2 2 1 1 3 5 7 9 10 11 12 11 9 11 14 10 11 10 11 11 11
3 4 6 7 8 9 11 10 11 11 10 12 12 10 9 9 9 8 8 9 9 9 9 8 6 6 6 6 6 4 3 2 2 4 6 6 8 10 11 13 11 11 12 14 13 12 13 13 13
5 7 8 8 11 11 11 11 10 11 12 12 13 13 12 10 10 10 9 9 8 9 8 9 8 6 6 6 8 8 7 7 6 6 6 6 8 8 10 11 12 13 13 14 17 17 15 16 13
8 10 11 11 11 13 13 13 12 11 13 15 16 13 14 13 13 12 12 11 10 10 8 8 8 8 7 5 6 8 10 11 11 10 10 10 9 9 10 11 11 12 15 16 16 17 16 17 16
12 13 15 17 14 12 14 14 13 12 11 13 17 16 14 15 15 14 13 12 12 12 12 10 9 9 9 8 7 7 8 11 14 14 14 14 13 13 13 13 13 13 14 15 16 17 17 17 17
16 17 19 21 20 16 12 13 14 14 14 14 15 14 12 11 12 13 15 14 13 14 14 14 13 13 12 11 11 9 10 10 11 13 16 17 17 17 16 16 16 16 16 16 17 17 17 18 18
18 18 22 23 21 19 15 12 13 14 16 17 19 17 14 11 10 11 12 12 14 14 16 16 16 16 16 15 14 14 13 12 12 13 13 15 19 22 21 20 20 20 20 20 19 19 19 19 19
22 20 22 21 21 19 18 16 13 15 18 20 21 22 20 18 15 14 14 13 12 14 16 18 19 19 19 19 19 18 18 17 17 16 15 16 16 19 22 23 25 24 24 24 24 24 23 22 23
24 21 20 20 19 21 23 22 19 17 20 23 21 25 24 23 22 20 19 15 14 14 15 18 20 20 20 21 23 23 22 21 21 21 21 19 19 20 21 22 23 26 27 28 28 27 28 28 27
20 20 21 21 21 22 24 26 28 27 24 22 21 26 30 28 26 22 22 23 22 19 18 17 18 21 21 22 23 25 26 25 24 24 24 24 24 24 24 24 24 24 25 26 27 27 28 29 30
17 22 22 24 25 26 25 25 27 30 27 24 23 25 29 30 28 26 23 23 24 25 25 23 20 20 22 22 22 23 23 25 27 27 26 26 27 28 29 29 29 27 27 27 29 28 29 29 29
23 23 23 23 28 28 26 26 25 27 27 29 31 28 27 29 26 27 26 25 22 22 24 25 24 23 23 22 24 25 25 25 26 27 28 28 28 29 32 33 33 33 32 32 32 31 31 31 31
24 25 24 27 30 30 28 27 27 28 26 29 33 36 33 31 28 25 25 25 26 24 25 26 25 26 27 27 27 28 28 29 28 28 30 31 30 30 31 34 36 36 37 38 37 36 36 35 35
28 27 28 32 33 33 32 27 29 29 29 29 35 35 33 32 30 27 25 27 28 29 28 26 27 28 30 30 31 31 31 32 33 33 34 34 34 34 34 34 34 36 38 39 40 41 41 40 40
31 32 31 33 34 34 34 29 27 31 30 30 35 33 32 33 34 34 31 29 29 27 29 30 29 28 30 33 33 33 33 34 37 38 39 38 38 39 38 38 38 38 37 38 39 42 42 43 43
36 37 33 30 33 35 37 35 34 32 32 30 32 30 30 32 33 35 34 33 32 30 30 29 30 31 31 29 32 34 33 35 37 40 41 42 42 42 42 43 43 43 41 41 42 43 44 45 45
37 38 37 34 34 40 41 42 42 39 35 35 33 30 30 31 32 33 35 36 37 37 36 35 32 31 33 34 34 34 36 37 39 40 42 43 43 45 45 45 47 48 47 46 47 47 48 47 48
37 38 39 37 40 43 38 40 37 37 37 34 32 34 34 36 36 36 36 35 35 36 38 38 39 39 37 36 36 38 38 37 37 40 41 42 43 44 47 48 50 51 51 51 51 51 51 50 51
40 41 40 41 39 39 37 36 35 33 35 35 34 32 33 33 32 34 36 38 39 38 38 39 40 39 39 39 40 40 40 41 42 42 43 45 47 47 46 46 47 48 50 51 53 54 54 54 55
36 35 36 38 36 39 43 42 35 37 35 35 38 37 35 36 33 32 32 34 34 36 38 39 41 43 44 43 41 41 42 44 46 48 50 51 51 52 54 53 53 52 52 50 50 50 51 53 55
34 38 38 39 42 42 41 48 41 42 43 42 41 40 40 39 39 40 39 38 40 41 42 43 42 43 45 48 48 45 45 45 45 47 50 53 55 54 53 53 53 51 52 52 51 51 50 50 51
37 38 40 42 44 48 44 47 48 48 49 46 45 45 43 43 43 45 44 45 42 42 42 43 41 41 43 47 50 50 48 48 49 51 50 51 54 58 59 59 58 58 56 54 51 52 52 53 54
41 41 43 44 45 49 44 47 51 51 48 47 49 49 46 45 45 45 47 47 48 48 48 48 48 45 45 46 48 50 54 55 56 56 57 59 58 60 62 65 64 64 63 63 62 60 57 57 56
40 41 43 46 47 48 49 52 51 49 50 50 49 48 47 49 50 50 50 50 50 50 52 53 52 51 50 49 55 55 55 60 62 63 64 65 65 65 66 69 71 70 68 69 66 64 64 65 63
42 40 40 44 47 49 52 55 55 52 50 46 47 47 47 49 52 53 53 55 56 58 60 59 60 59 58 59 57 63 69 68 67 69 70 72 72 71 72 72 75 80 78 75 72 68 67 67 67
42 44 46 50 50 52 55 56 54 51 51 51 51 50 51 52 54 55 56 59 60 62 63 64 64 64 63 65 68 68 73 75 75 75 76 80 81 79 79 80 79 80 84 87 86 85 85 79 74
46 47 48 50 51 53 52 51 53 51 51 52 53 52 53 55 57 58 59 61 62 63 64 65 66 66 70 73 68 74 76 73 73 75 73 77 83 83 83 87 84 80 80 83 83 81 83 84 86
46 46 48 48 51 53 54 55 56 54 54 55 56 56 56 58 59 61 62 64 65 66 67 69 70 70 75 74 75 78 81 77 77 76 78 78 81 82 85 91 94 89 86 85 85 84 79 81 78
45 47 48 51 54 55 57 56 56 57 58 58 58 60 63 63 64 65 66 68 70 72 74 76 77 80 79 81 82 84 83 82 86 87 90 90 89 91 91 90 90 92 96 98 94 88 87 90 84

GFSSGP_500_spd_033.txt.gz
Wind_Speed
7 7 8 9 9 11 10 9 9 8 7 8 10 11 12 12 12 12 11 11 11 10 7 4 5 5 5 6 7 6 5 2 3 6 8 8 8 8 9 11 11 14 12 9 9 11 11 11 9
3 5 6 7 8 9 10 11 10 9 9 8 8 9 9 10 11 11 11 11 10 10 10 7 5 3 4 3 3 3 3 1 1 2 4 6 8 9 9 10 10 10 12 12 10 10 9 10 9
3 5 5 8 9 9 11 13 14 12 11 10 10 9 10 9 9 10 9 9 9 8 7 7 7 5 3 4 3 2 2 2 1 3 4 5 7 9 10 10 11 12 11 11 12 10 10 12 12
4 6 8 10 11 12 12 12 12 13 11 12 12 12 10 10 10 10 10 9 8 8 7 6 6 6 6 4 4 5 4 5 5 5 4 4 7 8 9 10 10 12 13 12 13 14 14 15 15
8 9 11 12 13 15 14 13 11 11 12 13 12 12 11 10 9 10 11 11 11 10 10 8 7 6 6 6 5 4 6 8 9 9 9 8 8 8 9 9 10 11 12 14 14 15 16 16 16
10 13 15 16 15 15 16 15 14 12 11 13 15 14 10 9 9 7 7 10 12 13 12 12 11 10 9 7 6 6 7 7 9 12 12 12 12 12 12 12 12 12 13 14 15 16 18 18 18
12 16 18 19 16 15 13 14 16 13 13 14 15 15 13 12 12 12 11 9 10 12 13 14 15 15 14 13 12 10 9 9 10 11 12 15 16 16 15 16 16 16 16 17 17 17 18 19 19
17 20 21 20 19 16 13 13 13 14 16 18 20 18 16 13 14 14 16 13 12 13 13 13 15 16 17 17 16 15 15 13 13 13 13 14 15 18 19 20 20 21 21 20 20 20 20 20 20
20 23 23 20 18 16 15 14 14 15 17 20 22 23 18 16 15 15 17 18 16 15 15 16 14 15 16 17 19 20 20 19 18 18 17 16 17 19 18 19 23 25 25 24 24 24 23 23 23
24 24 21 20 17 18 16 17 17 17 20 21 24 21 19 18 18 17 18 19 17 17 18 19 20 18 17 18 19 20 22 23 23 23 22 21 21 22 21 21 23 23 25 27 28 28 27 27 27
25 23 20 20 21 21 20 20 21 20 21 19 20 23 24 21 18 17 18 19 20 20 19 20 19 20 21 21 20 20 21 23 25 26 27 26 25 25 26 25 25 26 27 27 28 29 29 30 30
20 20 21 25 25 23 22 22 22 24 24 24 21 23 25 25 23 21 19 19 18 20 21 21 23 23 24 24 24 24 23 23 23 25 27 28 29 29 29 30 30 30 30 31 31 31 31 31 31
18 23 25 25 28 25 25 25 24 24 26 30 31 28 27 26 24 23 23 20 19 18 20 22 22 24 25 26 28 28 27 27 27 26 26 27 29 30 31 32 33 34 35 35 36 35 34 34 34
24 25 25 27 28 27 27 28 26 26 27 30 29 32 32 28 25 24 24 23 24 24 23 24 24 25 26 29 30 30 31 31 31 30 31 30 31 32 34 34 35 35 37 40 40 40 39 38 38
29 26 25 26 28 30 30 28 28 25 26 29 32 32 31 29 28 27 27 26 27 27 28 27 26 26 28 29 31 34 34 33 34 34 34 34 35 36 37 37 39 39 38 38 41 43 43 43 43
30 29 27 28 29 31 30 23 25 27 30 32 34 32 30 28 29 30 30 29 28 26 25 27 29 27 27 29 31 33 35 36 37 38 39 38 38 38 40 41 42 44 45 41 41 42 44 45 45
31 31 28 26 29 32 32 27 24 30 35 35 34 30 26 27 28 30 30 31 32 31 30 29 31 33 33 32 32 32 34 36 36 38 41 43 43 43 43 44 45 47 49 49 47 46 47 47 47
31 32 32 29 30 35 34 36 33 38 37 34 30 28 27 26 27 28 30 31 32 33 33 31 30 31 34 36 35 35 35 36 38 39 40 42 45 47 47 47 48 50 50 51 52 52 53 52 52
35 36 37 34 35 37 34 37 36 35 32 29 29 28 29 30 32 34 34 34 34 34 35 36 36 35 35 35 36 39 42 42 41 42 45 46 46 45 47 47 48 48 49 52 53 54 56 56 58
39 38 36 36 35 36 34 32 33 31 34 33 31 29 29 31 34 34 35 35 36 37 38 37 36 36 37 39 40 41 42 43 45 47 47 48 49 49 50 50 50 50 50 52 54 56 56 58 59
38 34 35 35 35 38 38 38 35 35 36 36 34 35 36 35 36 36 35 36 35 36 37 37 37 38 39 39 40 41 42 44 46 49 51 53 54 54 54 56 57 56 55 55 55 56 57 57 58
34 35 35 36 38 40 42 45 40 37 39 39 38 39 40 40 40 39 40 41 39 39 40 41 41 41 42 42 43 45 46 48 48 49 52 53 56 58 57 56 56 58 59 58 57 58 60 60 60
34 35 37 39 42 45 43 45 45 43 43 40 42 40 40 42 43 44 43 44 42 40 40 39 40 41 42 43 45 46 49 51 53 56 57 57 58 58 58 58 57 58 60 62 60 58 59 60 60
35 37 39 43 45 48 42 44 49 48 46 44 45 47 47 46 46 46 47 47 47 47 47 47 48 50 50 51 52 53 55 56 58 59 63 65 64 62 62 63 64 64 64 66 68 68 68 66 63
38 40 43 46 46 48 46 46 46 47 47 47 47 48 49 50 49 49 49 50 51 52 52 54 55 54 55 56 56 59 61 63 63 63 65 68 70 69 69 69 69 70 70 70 72 74 74 73 73
44 45 43 47 47 47 49 54 54 53 51 48 48 49 49 51 52 53 55 57 57 56 58 60 59 59 60 63 63 63 64 67 67 66 70 74 78 76 75 75 77 77 76 76 77 77 78 78 81
42 44 41 46 48 49 52 54 54 54 51 50 49 49 50 52 55 57 61 62 63 64 65 63 64 65 65 66 68 68 69 69 71 73 74 76 78 82 83 83 83 83 81 82 83 82 82 82 83
41 43 47 47 49 51 52 52 51 49 49 50 51 53 54 57 59 61 61 63 66 67 68 69 70 71 71 70 70 71 71 72 73 75 77 78 84 83 85 87 88 89 88 86 84 82 80 78 82
42 44 43 44 49 52 54 59 58 53 52 55 55 57 59 59 61 63 66 67 69 70 72 73 73 74 74 75 76 77 77 77 78 79 80 81 81 83 87 91 92 88 93 90 89 90 90 90 91
42 43 43 47 50 52 55 59 58 53 54 57 57 59 63 65 67 69 70 71 72 74 75 75 76 77 78 79 80 80 81 82 83 84 84 83 83 85 89 93 97 98 97 98 97 97 100 102 98

GFSSGP_500_spd_036.txt.gz
Wind_Speed
8 8 9 10 11 12 12 11 11 11 10 10 11 11 11 11 11 12 12 11 10 11 9 5 2 3 4 5 6 5 5 2 6 8 8 4 4 5 6 5 7 7 8 8 7 8 9 10 9
6 7 7 10 10 12 12 12 12 10 10 9 10 10 10 10 10 10 9 9 9 9 9 9 7 3 1 1 2 3 3 2 2 1 2 3 4 5 5 6 8 6 6 7 8 8 8 9 9
4 6 8 10 12 12 13 14 13 12 10 9 10 11 10 10 10 10 10 9 8 8 8 7 8 8 6 3 2 1 0 0 0 1 2 3 3 4 5 6 8 8 8 8 8 9 9 10 10
3 6 8 10 12 13 13 13 13 13 10 10 12 12 11 11 11 9 9 9 9 9 8 7 6 5 5 6 5 4 4 4 3 3 3 3 4 5 6 7 8 8 9 10 9 9 11 13 12
5 8 10 13 13 14 12 11 11 13 11 9 11 13 13 11 10 11 8 7 7 8 9 8 8 7 6 5 6 5 5 6 7 7 7 7 8 8 8 9 9 10 10 11 11 13 13 14 14
8 10 12 14 16 15 14 12 12 10 10 11 12 13 12 11 11 11 12 12 10 8 9 9 9 9 9 8 8 7 7 7 7 8 11 11 11 12 12 12 12 13 13 12 13 13 15 16 16
11 14 16 17 17 16 14 13 12 11 9 10 10 12 11 11 11 12 12 13 13 13 12 12 12 11 11 11 11 11 10 9 9 10 11 12 13 15 15 16 16 16 16 16 16 16 17 17 18
14 17 19 20 19 16 14 12 12 13 14 14 15 14 13 10 11 13 15 16 15 15 15 15 15 16 15 14 15 15 15 14 14 13 13 14 15 15 15 18 20 20 20 20 20 19 19 20 20
18 21 22 21 18 16 14 13 14 15 16 18 19 20 15 10 11 12 14 15 15 14 14 14 15 15 16 16 16 17 18 18 19 18 18 17 18 18 18 17 19 20 22 24 23 23 24 24 23
22 24 24 22 18 16 15 16 15 16 17 19 22 18 13 13 14 14 14 15 15 16 16 18 17 17 18 18 18 18 19 19 21 23 23 23 23 24 22 21 21 22 22 23 24 26 27 28 28
25 26 23 19 17 18 18 18 17 19 19 17 19 21 18 17 16 15 15 14 16 17 18 19 20 20 20 21 22 23 22 22 22 23 24 25 26 28 28 28 27 26 26 25 26 26 27 29 30
25 23 19 20 22 21 19 20 19 24 21 21 19 19 20 20 22 21 19 18 17 18 19 21 22 22 23 24 25 26 27 28 27 25 24 25 27 29 31 31 31 31 31 31 31 30 29 29 30
20 21 21 23 25 21 21 21 22 26 26 25 24 21 18 19 21 23 21 20 20 20 20 20 23 24 25 26 28 28 29 29 30 30 29 28 27 28 31 33 34 34 35 35 35 35 35 35 34
22 22 25 27 27 24 23 23 26 27 29 28 26 24 22 23 22 21 21 20 21 23 22 21 23 25 26 28 29 31 31 31 31 32 33 32 32 32 32 33 35 37 38 38 37 38 38 39 41
27 26 25 25 26 27 25 24 28 28 28 27 25 25 26 27 26 25 22 22 22 23 24 24 24 25 25 25 27 31 31 33 35 35 36 36 35 36 37 37 38 39 41 41 40 40 41 41 41
28 26 25 26 26 28 27 24 27 27 28 27 27 29 30 29 28 26 25 25 25 25 24 26 26 26 27 29 30 29 30 33 35 37 38 39 40 41 41 41 43 44 45 46 44 44 43 44 44
30 28 25 26 26 28 28 22 25 31 31 30 32 34 33 29 25 25 26 27 28 29 30 29 29 29 30 31 33 34 35 34 36 38 39 41 42 43 44 45 45 47 48 49 50 50 50 49 48
29 27 27 25 29 33 33 31 28 34 34 34 33 31 30 29 28 28 28 28 29 30 31 31 32 32 31 32 33 35 36 37 38 38 40 43 44 44 46 48 49 50 51 52 53 54 54 54 53
32 32 32 30 34 36 34 32 34 33 31 30 28 27 27 28 28 28 30 32 34 37 38 36 35 36 36 37 37 37 38 39 40 41 43 45 46 48 50 51 51 52 52 53 55 55 57 57 56
37 37 35 37 37 35 33 29 30 30 30 31 31 30 30 30 30 29 32 34 35 37 38 40 42 40 40 40 40 41 43 44 44 44 44 46 48 50 53 54 54 55 56 56 56 56 57 58 59
42 41 40 40 37 35 33 31 31 30 31 34 35 36 35 34 34 34 34 36 37 38 39 39 41 43 45 46 46 46 46 47 47 48 50 53 53 53 54 57 59 59 59 59 60 60 61 61 61
45 42 42 38 38 36 36 37 33 33 35 36 36 35 35 35 36 38 37 37 39 40 41 42 45 47 48 49 50 52 52 51 52 54 53 54 56 57 58 59 61 63 63 62 64 64 65 65 65
40 40 40 39 39 40 39 41 42 39 35 35 36 34 34 36 37 37 38 40 42 43 44 44 45 46 47 48 50 51 52 54 55 57 56 57 58 61 62 64 66 67 68 66 64 66 67 66 67
39 39 40 41 42 43 39 43 45 42 42 39 37 37 39 41 40 39 39 42 44 45 45 47 48 49 50 51 52 53 54 55 57 58 59 61 62 63 66 69 70 71 72 73 71 70 70 70 71
39 41 43 44 42 43 44 47 45 44 44 43 41 40 39 39 43 45 46 48 51 52 54 54 55 55 55 56 57 59 60 61 62 63 65 66 68 70 71 72 76 77 78 78 77 76 75 76 77
43 43 43 42 46 48 47 47 45 47 46 44 42 39 39 40 41 45 49 51 54 57 59 60 61 62 63 64 65 65 65 66 67 68 69 70 72 74 75 77 78 81 84 85 85 86 83 80 81
43 43 39 45 47 50 53 50 47 48 49 45 40 40 43 46 47 50 54 56 59 60 61 64 66 68 68 69 69 69 70 71 71 73 73 73 73 75 78 80 81 81 80 85 89 85 84 88 89
43 42 45 46 48 52 55 53 54 51 50 47 46 48 48 51 52 55 58 60 62 64 67 69 70 70 70 71 74 76 76 76 76 76 76 76 76 77 79 80 82 84 86 87 88 90 90 91 91
45 48 49 49 52 54 55 56 57 55 52 52 51 50 51 52 54 59 62 64 67 69 71 72 73 75 76 77 78 78 77 76 77 77 78 79 81 82 82 83 83 84 86 87 88 91 93 94 94
52 51 51 52 50 50 54 59 60 55 52 53 53 53 54 57 60 63 65 68 71 73 74 75 77 79 80 80 82 83 83 83 83 84 85 85 85 85 85 86 87 88 89 89 90 91 92 93 95

GFSSGP_500_spd_039.txt.gz
Wind_Speed
9 10 12 13 14 14 15 14 13 12 12 11 12 12 12 11 11 11 12 13 12 12 11 9 5 4 5 6 7 7 6 2 4 8 9 8 7 7 6 7 6 8 6 6 7 5 6 9 10
7 9 10 12 13 14 13 12 11 11 10 11 12 12 11 10 9 9 9 9 10 10 10 9 8 5 2 1 2 4 4 4 4 3 4 6 6 6 6 6 5 5 4 5 7 8 7 8 11
6 8 10 11 12 12 12 11 10 10 9 10 12 12 11 10 9 7 7 6 6 7 7 7 7 7 6 3 2 1 0 1 2 4 5 6 6 7 7 8 8 6 6 6 7 8 9 9 11
5 6 8 10 12 11 10 10 10 10 9 9 11 11 10 9 9 10 7 4 3 3 3 4 5 5 5 5 6 4 4 4 4 4 4 5 6 7 7 8 9 8 8 9 9 10 11 12 13
3 5 8 12 12 13 11 10 9 8 7 6 8 10 11 10 8 7 8 8 7 6 5 5 5 5 5 4 4 4 4 5 8 8 8 8 8 8 9 9 9 9 9 10 11 13 13 13 14
5 7 9 12 15 14 12 9 9 7 6 5 6 7 9 10 9 8 8 8 8 9 9 9 9 9 9 9 8 8 7 7 7 8 10 12 12 13 13 12 12 12 11 12 12 13 13 15 16
9 11 12 15 16 16 13 9 7 7 7 7 6 8 10 10 9 10 11 11 10 8 8 8 8 9 10 11 12 12 12 12 11 11 11 11 11 14 16 16 15 16 16 15 15 15 15 16 17
13 14 15 17 18 17 13 10 8 8 9 10 10 10 11 8 8 10 11 12 13 11 10 9 9 9 8 9 11 13 15 16 16 16 16 16 15 14 15 15 18 20 20 19 19 19 19 19 18
15 17 18 19 20 16 12 11 11 11 12 11 12 12 11 8 7 8 10 12 13 14 14 15 14 13 13 13 13 13 15 16 18 20 20 20 20 20 19 18 19 20 19 20 22 24 23 23 23
19 20 21 21 19 13 11 12 13 14 14 14 14 12 10 9 10 10 11 12 13 14 15 17 18 18 18 18 18 18 18 19 20 21 22 24 25 25 24 24 24 24 24 22 22 22 22 25 26
23 24 23 20 15 13 15 16 15 16 15 14 17 15 13 12 11 13 14 15 16 16 16 17 19 21 21 21 22 22 23 23 23 23 23 23 25 28 28 28 28 28 29 28 27 27 26 26 27
25 23 21 17 15 16 18 18 15 17 16 18 17 17 15 14 13 14 16 16 17 18 19 18 18 19 20 21 23 25 26 27 27 26 25 25 26 27 28 29 30 31 32 32 32 31 31 31 31
23 20 19 18 18 18 20 21 20 18 19 21 20 17 15 15 15 18 19 18 17 17 18 18 18 19 20 22 22 24 27 27 29 30 30 30 29 28 29 31 31 32 33 34 35 34 35 35 36
21 22 22 23 22 21 21 20 22 21 21 21 21 19 16 16 19 21 20 19 19 19 20 20 20 21 23 23 25 26 25 26 29 30 31 32 34 35 34 34 34 34 36 36 37 37 37 37 37
24 24 24 25 24 22 22 23 24 23 22 21 20 19 20 21 23 24 22 20 19 19 20 20 21 22 24 25 25 26 27 29 29 31 32 34 36 37 38 40 41 41 40 39 40 39 39 41 42
27 27 25 23 24 25 25 25 25 25 23 23 23 23 24 25 26 23 21 20 19 19 20 21 23 24 25 27 29 31 31 31 33 35 36 37 38 40 41 42 43 45 45 45 46 45 44 45 44
30 27 23 24 25 26 24 23 26 27 27 26 27 28 29 29 28 25 23 22 21 21 23 24 25 26 27 28 30 31 32 33 34 34 35 37 39 41 42 44 46 47 48 50 50 51 52 51 50
29 27 25 22 26 28 27 26 29 30 30 29 28 28 28 28 27 28 27 27 26 24 25 26 28 31 33 34 35 36 37 38 38 39 39 40 41 43 44 46 48 49 49 50 51 53 55 56 56
32 30 27 27 31 32 31 31 31 31 30 30 28 27 26 26 26 26 27 29 29 29 30 31 32 33 35 36 39 39 39 41 41 42 43 44 46 48 48 50 52 53 53 54 56 56 56 58 58
31 31 30 31 34 37 36 33 31 30 28 27 26 27 27 27 28 31 30 31 32 33 33 34 36 38 40 42 42 44 45 45 46 47 47 49 50 52 53 54 55 55 57 58 60 61 61 61 61
34 35 34 38 39 40 39 36 31 30 29 27 26 27 28 29 30 31 31 30 30 32 33 35 36 36 38 40 42 46 48 49 50 51 52 53 52 53 55 55 56 56 58 60 62 64 66 67 68
38 38 40 41 42 42 39 39 29 30 30 28 29 30 29 30 33 32 31 32 33 36 37 37 38 38 38 40 43 46 48 50 52 54 56 57 55 56 57 58 59 60 60 62 65 65 66 67 69
43 41 42 43 42 42 40 39 35 32 30 29 30 31 31 33 32 34 35 37 38 39 40 41 40 39 39 43 45 47 49 52 55 58 59 61 62 65 67 66 66 65 67 68 69 69 70 71 72
46 44 43 42 43 43 36 39 42 37 32 33 32 30 30 33 37 41 41 39 39 40 42 43 42 41 44 47 50 52 54 57 59 60 62 63 64 63 64 68 70 73 74 75 75 76 76 77 77
39 38 41 43 43 41 39 41 39 38 37 35 35 37 36 36 38 38 38 41 43 42 43 43 45 46 50 53 56 57 59 60 61 63 64 66 67 68 68 70 73 75 76 78 79 81 82 82 80
36 40 42 43 42 42 43 43 40 38 35 35 35 39 40 40 40 40 42 44 48 48 52 50 52 55 57 58 60 62 64 67 69 69 68 69 71 72 74 76 76 76 77 78 78 79 81 83 84
38 41 39 43 46 47 45 44 43 43 43 42 40 38 40 40 41 45 46 48 51 53 57 58 58 60 60 63 66 68 71 73 74 75 75 75 76 77 77 77 78 77 76 77 78 79 81 83 85
42 43 45 47 47 47 48 48 47 48 47 45 43 42 43 45 47 50 53 56 56 57 60 60 60 63 65 68 73 75 75 76 76 76 77 79 79 79 78 78 78 78 80 81 81 82 83 83 85
43 45 47 47 48 49 48 51 54 54 50 48 46 46 49 50 51 55 58 58 60 59 62 64 66 69 70 72 76 78 78 80 81 82 81 81 80 79 78 80 81 81 81 82 83 84 85 86 87
48 47 48 49 50 49 52 54 58 55 52 51 51 52 55 58 58 59 59 59 61 62 64 65 69 72 74 76 79 80 81 82 83 83 82 81 80 80 81 82 83 85 87 88 89 89 89 89 89

GFSSGP_500_spd_042.txt.gz
Wind_Speed
10 11 12 13 13 13 13 12 11 10 10 11 11 9 8 8 8 8 8 10 11 11 11 10 6 4 5 6 6 5 4 6 8 11 11 9 8 9 9 9 9 12 13 12 11 11 11 10 10
8 9 9 11 12 12 11 10 10 9 9 10 10 9 9 8 6 5 5 6 6 7 7 8 8 7 4 2 3 3 3 2 2 6 9 9 10 8 9 9 9 9 9 10 10 11 12 11 10
6 6 8 10 11 11 10 8 7 7 7 8 9 8 8 8 9 7 5 3 3 3 4 5 5 5 5 5 2 1 0 1 2 3 4 6 8 8 9 9 10 10 9 10 10 11 12 12 12
4 5 7 9 10 11 10 8 6 5 5 6 8 7 7 5 6 8 8 7 6 5 4 3 4 5 5 4 4 4 3 5 4 4 4 6 7 8 9 10 10 11 11 11 12 12 12 13 13
2 4 7 9 11 12 11 8 6 4 4 4 5 6 7 5 5 5 7 9 8 7 7 6 5 6 6 6 5 5 5 6 7 8 8 8 9 9 10 10 11 12 12 13 13 15 15 15 15
4 5 7 10 12 13 12 8 5 4 3 2 3 6 8 9 6 5 4 4 4 5 5 4 5 5 6 8 8 9 8 8 9 9 10 12 13 13 14 13 13 13 13 14 14 15 15 17 17
6 7 10 12 13 14 12 7 3 4 4 3 6 6 8 10 8 7 6 5 5 5 6 5 4 5 6 7 9 10 11 12 12 12 13 13 13 14 16 18 18 17 17 16 16 17 17 17 17
10 11 13 13 14 14 11 7 5 5 4 5 6 7 8 8 7 7 9 10 9 9 10 10 10 9 9 9 9 11 13 14 16 16 17 17 17 17 17 18 19 19 19 21 21 20 20 20 20
14 15 16 17 17 16 12 8 9 8 7 6 7 7 7 5 5 7 8 10 11 12 13 14 14 14 13 13 13 13 13 15 17 19 20 21 22 22 22 21 21 22 21 21 21 21 22 23 24
16 17 19 21 20 16 11 10 12 12 9 9 8 9 8 7 8 9 10 10 11 12 13 13 15 17 18 19 19 18 18 19 18 18 19 21 24 26 26 26 26 26 26 26 25 24 24 24 24
19 20 22 21 19 15 12 13 15 14 12 13 11 10 11 11 11 12 12 13 15 15 16 16 15 16 17 18 19 19 20 21 22 22 21 21 21 23 24 26 28 30 31 31 31 30 29 29 29
21 22 22 20 18 15 15 16 15 14 15 14 14 15 13 14 13 13 12 14 15 17 17 18 18 17 17 17 18 19 20 22 23 24 24 25 25 26 26 26 27 28 30 33 34 35 34 34 34
23 24 23 20 19 18 19 19 16 15 15 16 17 16 16 15 15 15 16 16 17 17 19 18 18 19 19 20 20 21 22 24 26 27 28 28 29 30 30 31 31 32 32 32 33 34 35 37 38
25 24 23 22 23 22 22 21 18 16 16 17 17 16 15 15 16 17 19 20 21 19 17 19 19 19 20 22 23 24 25 25 24 26 27 29 31 33 35 36 37 37 36 36 36 37 37 37 38
27 25 24 25 26 25 24 22 20 19 19 19 19 18 18 18 19 19 21 20 19 19 20 19 20 21 21 22 23 24 26 27 28 29 30 31 32 33 35 36 39 41 42 43 43 43 42 41 43
29 27 27 26 26 26 24 25 23 22 20 20 20 21 21 22 22 23 22 19 18 18 18 19 20 21 22 23 23 24 25 26 27 29 31 33 34 36 37 38 40 42 43 45 46 47 47 49 50
30 30 28 27 25 27 26 24 25 24 24 24 24 25 24 24 24 23 23 21 19 19 20 20 21 22 23 25 26 28 29 31 32 33 35 35 37 38 40 42 43 44 46 48 48 49 51 52 53
33 28 27 26 27 28 27 26 27 27 27 28 28 28 27 26 25 23 22 22 22 22 23 25 25 26 27 28 29 30 31 32 35 37 38 40 41 43 43 43 45 48 49 51 53 54 55 55 56
31 29 27 28 31 32 31 30 31 30 30 32 31 30 29 28 26 26 25 24 25 28 29 29 29 31 32 32 32 32 32 34 37 37 39 42 44 46 49 50 51 51 51 52 54 57 57 58 59
31 31 30 31 34 35 34 33 33 32 33 33 32 30 29 28 27 27 28 27 29 32 33 34 34 33 33 35 35 34 34 35 37 39 43 46 47 49 51 52 55 58 60 61 61 59 60 62 62
35 35 34 36 36 38 37 37 34 35 35 33 32 31 31 30 30 29 28 29 31 33 35 36 36 37 36 36 38 41 42 42 43 44 47 50 53 55 57 58 59 61 64 64 64 63 64 65 67
38 36 38 39 40 41 39 42 35 33 34 30 30 30 32 32 33 32 30 30 30 31 35 37 39 40 41 42 43 42 44 47 47 49 52 54 57 60 61 62 63 64 66 66 67 68 69 69 69
43 40 42 42 44 46 44 41 41 33 30 29 30 32 34 34 34 33 32 31 32 34 36 36 39 39 39 40 42 44 46 49 51 52 55 58 61 63 66 68 69 71 72 73 74 73 72 72 71
43 46 45 45 48 52 45 41 45 32 29 29 31 33 33 33 33 32 33 35 36 38 40 40 40 43 44 46 48 50 52 54 56 57 59 62 64 65 68 71 72 73 74 75 77 78 78 79 82
43 42 45 48 48 46 41 41 42 38 32 30 31 32 32 32 32 34 37 39 39 40 42 43 44 46 49 52 53 55 55 57 61 61 63 66 67 70 72 74 74 75 76 77 79 79 80 81 82
43 44 44 44 43 41 41 44 39 38 38 36 35 33 32 32 34 35 37 38 41 44 47 46 47 51 53 55 58 60 58 60 62 65 68 71 74 75 77 80 81 81 81 82 82 81 81 82 84
43 44 36 39 40 42 42 40 40 40 39 39 37 36 36 37 38 40 42 45 47 47 48 50 54 56 57 57 60 63 64 65 67 70 73 76 78 79 81 83 83 83 83 82 81 80 80 80 80
47 40 40 40 39 40 42 41 42 42 43 41 41 40 39 38 39 42 45 48 50 51 51 54 56 59 59 59 61 64 67 69 69 73 76 78 81 84 85 84 84 84 81 80 79 79 80 81 81
44 43 41 40 43 44 44 40 41 44 46 47 46 42 42 43 46 49 50 51 53 53 56 57 57 58 60 62 65 67 68 72 75 77 80 82 84 85 85 83 82 80 80 80 81 82 82 82 82
47 48 46 47 43 43 46 47 50 50 50 49 48 49 46 47 49 51 52 54 54 58 61 59 58 59 64 66 66 69 73 76 80 83 84 85 84 83 82 81 82 82 83 83 83 84 86 86 86

GFSSGP_500_spd_045.txt.gz
Wind_Speed
10 11 11 12 12 13 12 9 7 8 8 7 6 7 6 5 5 6 6 8 9 10 10 9 6 4 5 5 5 3 1 4 7 10 11 11 10 11 11 11 11 11 13 15 14 13 13 14 14
8 8 8 10 12 13 11 8 6 6 6 6 6 6 6 7 6 4 4 5 6 7 7 8 8 7 4 2 3 3 2 2 1 4 7 9 10 9 9 10 11 11 12 12 12 13 13 13 14
5 6 6 8 12 10 9 7 5 4 4 5 5 5 5 7 9 6 5 5 5 5 5 5 5 6 6 5 2 1 1 2 2 3 3 4 7 9 10 10 9 10 11 11 12 13 13 13 14
3 3 5 8 10 11 11 6 3 2 1 3 3 4 4 4 5 7 8 6 5 4 3 3 3 4 3 3 3 4 3 4 4 5 5 6 7 8 9 9 9 11 11 12 12 13 13 13 13
1 2 5 8 9 11 10 6 3 1 1 2 2 3 4 3 2 2 3 4 5 3 2 1 1 2 3 5 5 4 4 4 4 6 8 9 10 10 9 10 11 11 11 12 13 14 15 15 16
1 3 6 8 9 11 10 6 3 2 2 4 5 5 5 6 4 3 2 2 1 1 1 0 2 3 3 5 6 7 7 8 8 7 8 8 9 11 13 13 13 14 14 14 14 15 15 16 16
5 6 8 10 10 11 11 8 5 4 3 5 6 8 8 9 8 5 5 6 6 6 6 5 5 5 5 6 7 8 10 11 12 12 13 12 12 12 12 12 13 14 17 18 18 18 18 18 18
9 10 11 12 14 14 13 11 7 7 5 6 7 7 8 9 9 6 7 7 7 8 10 10 10 9 9 8 8 9 9 11 13 15 17 17 17 17 17 18 18 17 17 16 17 19 21 22 22
14 14 14 14 16 17 15 12 9 9 8 10 8 8 7 7 9 9 9 10 10 10 11 12 12 13 13 13 13 12 12 12 13 14 15 15 17 19 21 22 23 23 24 23 22 22 22 22 22
17 18 17 17 18 17 16 13 11 11 10 12 12 10 8 8 10 12 13 12 13 14 15 15 15 14 15 15 15 16 16 16 16 15 15 16 17 18 18 20 21 24 26 27 27 27 27 27 27
20 21 21 21 20 17 15 15 14 14 13 13 14 14 12 12 13 14 15 15 15 16 17 18 18 18 17 16 16 16 17 17 18 19 19 21 21 21 21 21 21 22 23 25 26 28 30 31 32
22 23 23 23 21 18 16 16 16 17 14 15 15 15 16 17 16 16 16 16 15 15 16 17 17 18 17 17 17 17 17 18 20 20 21 22 23 24 25 26 27 27 26 27 27 29 29 29 31
24 25 25 25 23 20 18 19 18 19 19 17 17 17 17 18 18 19 17 18 17 17 18 18 19 18 18 18 18 18 18 20 22 23 25 26 26 26 27 27 29 29 31 31 31 33 34 35 35
27 28 28 27 25 23 23 22 21 20 20 19 19 19 18 18 17 18 18 18 19 20 20 21 20 20 20 19 20 20 21 21 22 23 24 26 27 29 30 31 33 33 34 35 35 35 37 37 38
30 30 29 28 27 26 27 24 23 20 21 21 21 20 20 20 20 19 19 20 22 23 23 22 21 21 21 22 23 22 22 23 24 25 25 26 28 30 32 33 35 36 38 39 39 40 40 42 43
31 31 31 30 30 28 31 26 23 23 23 23 22 22 22 22 22 22 22 22 22 21 21 21 20 21 23 23 24 24 24 23 23 24 25 26 27 29 31 33 35 39 40 42 43 46 46 46 47
33 33 34 34 30 31 32 31 26 26 24 23 24 25 26 25 24 25 25 23 22 22 21 20 20 22 23 24 25 26 26 26 26 26 27 29 31 32 32 33 35 37 40 43 46 49 52 52 51
37 33 33 31 32 33 31 31 29 29 26 25 27 29 28 28 27 27 27 26 24 22 22 23 24 24 25 27 29 30 30 30 30 32 32 33 33 33 36 39 41 42 43 44 46 48 51 54 57
36 35 33 34 35 34 34 33 34 32 30 30 30 30 29 29 29 29 28 28 27 26 25 26 28 29 30 30 32 33 34 35 35 36 36 38 39 40 40 40 40 43 47 49 52 54 56 56 59
35 35 31 33 34 39 38 37 36 36 31 33 33 33 32 32 30 30 29 29 29 29 30 29 31 33 35 35 36 36 36 36 36 36 35 38 40 42 45 47 49 50 53 55 58 60 61 64 64
35 36 34 38 40 42 43 42 39 37 33 34 36 36 36 34 33 32 32 32 33 33 32 32 32 34 34 34 36 37 37 38 39 39 40 43 44 46 50 52 55 58 58 61 64 65 67 68 68
37 38 37 39 43 43 47 48 42 38 35 37 36 36 34 33 33 33 34 35 35 35 34 32 32 33 34 35 35 34 34 36 39 43 47 49 52 54 56 59 61 64 66 67 68 70 71 72 73
39 41 41 43 46 48 49 50 41 41 36 37 37 36 35 34 34 35 37 37 36 36 36 34 35 37 38 38 37 37 38 40 41 45 48 51 54 58 61 63 66 67 70 71 73 74 77 78 80
43 45 45 46 47 54 49 49 46 45 38 40 35 34 32 33 35 37 36 36 37 37 36 37 39 40 40 41 42 42 43 45 48 49 52 55 58 61 64 67 68 69 72 74 76 79 81 83 83
43 43 46 53 56 54 52 52 47 45 37 34 32 33 35 35 35 35 34 35 36 37 39 40 41 41 43 46 48 48 48 49 51 53 54 57 58 60 64 67 68 71 74 75 76 79 82 84 87
51 48 49 55 56 54 51 51 49 39 35 32 31 32 33 34 35 34 35 38 39 39 40 42 44 47 49 50 49 51 54 54 53 53 55 58 60 63 66 69 72 73 76 79 82 85 87 88 89
56 54 42 48 50 54 51 46 43 37 32 32 32 31 31 31 33 35 36 40 42 41 42 45 47 49 50 53 54 54 57 59 58 55 57 60 62 65 69 74 77 79 83 87 88 89 90 89 85
57 55 52 50 52 52 50 47 37 30 33 34 33 31 31 33 35 38 41 43 45 48 48 50 50 50 54 55 55 58 59 59 59 60 61 63 66 72 76 80 81 85 88 90 90 90 87 83 82
49 51 49 49 51 52 51 48 36 35 38 39 37 36 35 35 39 42 46 49 50 52 54 55 55 56 56 56 58 61 62 60 64 65 67 69 75 79 82 85 88 91 91 91 90 86 84 84 84
51 50 50 52 52 51 51 48 46 42 40 42 43 43 42 42 44 46 49 54 55 55 56 57 57 58 59 61 63 63 62 66 67 69 72 76 81 84 86 89 91 92 88 87 86 86 86 88 89

GFSSGP_500_spd_048.txt.gz
Wind_Speed
9 9 10 11 12 16 12 9 6 6 7 7 7 7 7 7 6 7 8 9 10 10 10 9 6 5 6 8 8 7 4 0 3 6 8 8 8 7 7 7 8 10 11 12 12 13 14 12 12
7 7 9 11 9 14 10 7 5 4 4 6 6 7 8 8 7 6 6 6 7 7 8 8 8 7 6 5 5 6 7 6 5 3 4 5 4 5 6 6 7 8 9 10 11 11 12 12 12
4 6 7 8 14 13 9 6 4 3 2 3 5 5 6 7 8 5 4 4 4 5 4 5 4 4 5 6 4 3 3 5 6 5 5 5 4 4 5 6 7 8 9 10 10 11 11 11 11
3 3 4 7 10 12 9 6 3 2 1 1 2 3 3 3 5 6 5 3 3 3 2 2 2 2 2 2 2 2 2 1 2 4 5 6 7 7 7 7 7 7 8 9 10 11 12 12 12
2 1 3 6 8 9 10 6 3 2 2 3 2 2 2 2 1 1 2 3 2 2 1 0 1 2 2 1 2 2 2 1 2 2 3 5 6 7 8 9 9 9 9 9 10 11 12 13 13
2 3 5 7 7 8 9 8 6 3 3 5 5 5 6 6 2 2 3 3 2 2 2 2 3 3 4 5 5 5 5 5 5 5 5 6 6 6 7 8 9 11 12 13 13 13 14 14 14
3 5 8 10 9 10 10 10 8 7 5 6 6 7 8 8 7 4 4 5 5 5 4 4 5 5 5 5 6 6 6 7 7 8 8 8 9 9 11 11 11 11 11 13 13 15 16 17 17
6 7 10 11 11 12 13 12 10 9 8 8 8 6 9 9 9 7 6 6 7 8 8 8 7 8 8 8 8 8 8 8 8 8 8 8 10 9 11 12 14 15 15 15 16 16 17 17 18
10 11 12 13 14 15 15 14 12 11 9 11 11 9 8 9 9 8 8 9 9 10 10 11 11 11 10 10 11 10 11 11 11 12 11 12 11 9 12 13 12 14 16 16 18 19 20 21 21
14 15 15 16 15 18 17 16 12 12 10 13 13 13 10 10 11 12 13 14 14 13 13 14 14 14 13 11 11 10 10 10 10 10 11 12 12 11 12 14 15 16 18 19 19 20 21 23 24
18 19 18 17 17 19 16 17 14 13 13 12 15 15 14 13 13 14 15 16 16 16 17 17 17 16 16 15 12 11 11 11 11 12 14 14 15 15 16 16 17 17 19 20 22 23 24 24 25
21 20 20 20 20 20 17 17 17 16 14 16 15 17 17 18 17 16 16 16 16 16 15 16 17 17 18 17 15 14 14 14 15 16 17 18 18 18 18 18 19 19 20 21 22 24 25 27 27
21 21 24 24 24 23 20 19 18 18 19 18 18 18 19 20 20 19 18 16 16 17 18 19 19 18 19 18 18 19 19 19 18 19 18 19 18 19 20 21 22 23 24 26 27 27 29 29 30
24 26 27 27 27 25 23 21 18 22 22 20 20 20 19 20 20 20 19 18 17 17 20 22 22 21 19 19 19 20 20 22 21 21 22 22 22 22 22 22 22 23 24 25 27 29 31 33 33
27 28 28 27 28 27 28 24 21 23 23 23 22 22 21 20 21 21 21 20 20 21 22 23 23 23 21 20 20 20 21 21 23 24 25 24 24 25 25 25 27 27 28 28 29 31 32 32 33
29 30 32 29 30 31 32 25 28 25 24 24 24 23 23 22 22 22 22 23 23 23 23 23 24 23 21 21 21 21 22 22 23 24 25 25 27 27 28 28 28 28 29 28 28 30 31 34 36
30 33 33 34 31 30 33 31 29 28 28 26 25 24 24 25 25 26 25 25 26 26 24 22 22 23 23 23 23 23 23 24 25 26 27 28 29 31 33 33 33 35 35 37 40 40 41 41 42
36 36 34 35 34 33 34 32 32 30 30 27 26 25 26 26 27 28 28 27 27 27 26 25 25 24 25 26 26 27 28 28 29 30 31 32 34 34 34 35 36 37 38 39 41 41 43 46 48
39 39 38 32 38 36 35 35 36 32 32 29 29 29 28 29 29 29 30 30 29 29 28 28 29 27 26 26 26 28 31 33 34 35 36 35 35 36 35 36 37 38 41 43 44 45 47 49 52
40 39 34 34 38 36 35 36 35 36 30 33 34 32 32 31 32 32 32 31 31 31 30 28 29 30 30 29 30 32 34 36 35 34 33 34 34 35 37 38 40 41 44 46 48 51 52 55 58
36 37 34 36 39 39 38 41 36 37 37 34 32 36 35 33 35 35 34 33 32 32 31 30 31 32 33 33 32 32 34 34 34 33 33 34 36 37 39 41 43 46 48 50 53 56 58 59 62
38 36 38 37 40 42 42 50 38 36 38 38 35 38 39 37 35 34 34 33 33 33 34 35 35 35 34 33 33 34 35 35 33 35 38 40 41 42 44 46 47 50 52 54 56 59 62 63 66
39 38 40 39 41 47 44 52 45 38 37 36 34 40 42 39 37 34 34 35 35 35 35 36 37 37 37 36 36 38 38 37 40 42 43 45 46 47 49 51 54 53 54 56 58 61 63 65 67
40 39 42 45 46 52 45 46 52 43 40 38 37 39 41 41 39 36 34 34 34 34 35 36 37 37 38 39 41 42 42 43 46 47 48 50 51 52 53 55 55 56 57 59 60 63 68 72 73
42 42 45 50 52 54 49 50 44 46 42 38 37 37 37 35 33 32 35 35 35 34 35 35 34 36 38 39 40 42 45 48 49 51 53 52 53 55 57 58 58 58 61 63 66 69 72 76 79
43 45 47 48 52 56 56 50 44 41 33 35 33 33 32 31 30 33 36 35 34 35 34 35 37 39 39 40 43 46 49 50 53 55 55 55 57 60 60 59 61 62 63 68 72 77 80 81 83
47 50 40 50 53 57 55 51 47 44 31 28 29 29 28 29 30 31 33 34 35 37 41 42 41 43 44 47 49 51 52 55 59 57 57 59 61 61 59 64 64 66 69 73 78 81 83 85 89
50 50 51 57 58 57 53 50 47 44 35 31 29 27 26 27 26 26 28 32 36 38 40 41 43 46 48 50 52 54 55 57 59 59 60 61 61 61 65 67 68 71 73 77 80 84 86 89 92
52 54 53 52 56 57 53 47 48 46 42 35 33 31 28 26 27 30 32 35 36 38 42 45 47 49 53 56 57 59 60 60 61 63 64 61 63 67 69 69 74 76 77 81 83 87 92 94 94
59 59 56 56 53 51 53 42 45 44 44 37 36 35 32 30 30 33 35 38 41 44 47 49 51 54 57 61 61 61 61 62 63 66 65 66 69 72 72 74 75 79 82 85 89 92 93 92 88

GFSSGP_500_spd_051.txt.gz
Wind_Speed
9 9 10 11 9 10 12 10 8 8 9 9 9 9 8 7 7 8 9 9 11 11 11 9 8 8 9 9 10 9 7 3 1 1 1 2 2 2 3 4 6 8 8 8 8 9 10 10 9
7 8 9 11 9 14 12 9 6 5 7 9 7 7 7 7 7 6 7 6 7 7 8 9 8 6 7 6 6 8 8 8 9 8 7 3 1 2 2 3 4 5 6 7 7 8 8 10 10
6 6 6 9 9 15 12 7 5 3 3 6 7 4 5 7 6 5 5 4 4 4 5 4 5 5 5 6 5 4 4 5 6 7 8 7 6 5 4 2 3 4 6 7 8 8 9 9 10
4 4 5 8 9 12 11 7 5 2 1 2 3 3 3 4 5 6 4 3 1 2 2 2 2 1 1 2 3 3 3 3 3 4 4 3 4 4 3 3 3 3 5 6 6 7 9 10 11
4 2 3 6 8 10 11 8 4 3 2 1 3 1 2 2 1 1 2 3 2 3 3 3 3 3 3 2 1 0 0 1 1 1 2 2 2 2 2 2 3 4 4 5 6 7 7 8 9
3 1 2 5 7 9 9 10 7 4 4 2 3 5 5 4 2 2 2 2 2 1 2 3 4 4 5 5 5 3 3 3 3 2 3 2 3 3 3 3 4 4 5 6 8 9 10 11 11
5 3 4 5 6 7 10 11 11 6 6 3 5 6 7 7 6 3 4 5 4 5 4 5 4 5 5 5 5 4 4 4 5 4 5 5 5 6 7 7 7 7 8 10 10 10 11 11 12
6 5 7 9 8 8 11 12 12 8 9 8 5 8 6 8 8 6 4 4 5 5 6 7 7 7 7 6 6 6 6 5 4 4 4 4 5 7 9 9 9 10 11 12 13 14 14 15 16
9 9 9 12 13 8 12 12 13 9 9 11 8 10 9 8 8 7 7 7 8 8 8 8 9 9 8 8 7 7 8 7 7 6 7 7 7 8 9 8 9 10 11 11 13 14 15 17 18
11 12 12 13 15 11 12 13 14 11 9 10 12 12 13 11 11 10 11 11 12 13 13 12 13 13 12 12 11 10 10 9 8 9 8 8 8 8 11 11 13 12 13 14 16 15 16 17 18
15 15 15 15 16 14 14 14 13 13 8 11 15 14 13 14 14 12 13 14 14 15 15 14 14 14 14 14 14 13 11 12 11 12 11 12 12 11 10 11 11 13 13 14 15 17 18 19 21
17 17 17 15 17 17 17 18 17 14 12 14 16 16 16 16 16 16 14 15 16 17 17 15 14 15 15 15 14 15 14 14 14 15 15 14 13 13 13 12 12 14 15 16 17 18 20 20 22
16 17 19 19 20 21 20 20 18 14 17 17 17 18 19 19 18 17 17 16 15 16 16 17 17 19 18 17 17 17 17 17 17 17 17 16 16 15 15 15 14 14 15 15 17 17 18 21 20
20 21 22 22 23 22 22 21 18 18 21 21 19 20 21 19 19 19 18 17 16 16 16 17 20 21 20 20 19 19 20 19 19 18 19 19 19 19 18 19 19 17 17 18 19 20 23 24 25
23 24 23 23 24 23 26 22 20 23 22 24 22 21 22 20 21 22 20 19 20 20 20 21 22 22 22 22 22 22 22 22 21 21 21 22 22 21 22 22 21 21 23 23 24 25 25 27 28
25 26 27 26 27 28 30 21 27 25 24 24 24 24 22 22 23 23 22 21 21 22 24 25 25 23 21 21 22 22 23 23 24 24 23 24 25 25 26 26 28 29 29 30 31 32 34 35 37
27 30 30 29 29 31 33 28 28 28 27 26 26 25 25 25 25 25 24 24 25 25 25 27 27 25 23 22 23 23 24 24 25 26 27 29 29 30 30 30 30 32 34 33 33 35 35 36 37
32 32 31 32 34 35 35 34 35 32 30 28 26 26 27 27 26 26 25 26 25 25 26 27 27 27 26 26 27 27 27 27 27 27 29 30 32 35 37 35 35 33 32 33 35 37 38 40 40
35 35 34 34 40 42 38 35 35 34 30 26 26 27 27 28 28 29 27 28 27 26 27 27 26 27 28 30 30 29 29 28 28 29 30 32 35 35 36 36 35 34 35 35 37 38 41 42 45
35 36 36 39 43 43 37 33 32 34 29 28 28 26 28 29 31 34 32 30 31 31 30 29 28 28 29 30 32 32 33 32 31 31 31 34 36 36 35 35 38 39 39 40 42 44 44 45 48
36 38 39 42 40 42 39 37 32 29 30 28 27 30 31 31 33 36 36 34 33 34 33 31 31 31 31 31 32 33 35 35 33 30 31 34 34 33 38 42 42 44 46 45 46 50 49 49 49
42 41 41 39 42 42 41 45 33 28 31 31 30 32 33 34 35 38 39 37 35 33 33 33 33 32 32 33 33 33 34 34 34 34 35 36 39 43 44 45 47 48 50 49 51 53 55 56 57
43 40 40 41 43 47 45 49 36 29 27 28 32 34 36 35 35 38 40 38 37 35 33 33 33 33 33 33 33 32 33 36 36 37 39 41 43 45 47 49 50 52 54 57 58 58 59 60 61
42 39 40 44 46 55 43 47 44 35 33 29 31 35 38 37 35 38 39 37 37 35 33 34 33 32 31 31 30 31 33 35 37 38 40 43 47 49 50 53 57 60 61 62 62 61 63 64 66
43 41 44 50 53 53 46 50 42 40 37 35 31 33 33 34 33 34 33 34 34 33 32 33 31 30 30 31 33 34 36 37 37 39 42 46 49 52 56 59 60 62 64 63 62 64 65 67 70
42 49 52 51 51 51 50 47 42 43 42 35 30 30 29 30 31 29 30 31 31 32 32 32 31 32 33 34 38 38 38 40 42 45 47 50 52 56 59 60 61 64 64 63 65 68 71 74 76
46 45 34 43 49 53 53 51 48 44 43 36 29 31 29 27 28 29 30 29 30 31 33 34 35 36 39 39 39 40 41 44 47 49 51 53 55 58 59 61 63 65 65 67 70 73 76 78 79
50 46 46 48 51 52 54 50 45 42 40 36 33 31 28 28 28 31 31 29 31 33 33 34 37 39 40 41 41 43 45 48 51 53 57 59 60 60 61 63 64 65 68 71 75 78 79 80 81
52 50 51 49 50 52 51 47 45 44 42 38 32 25 26 29 30 29 29 29 30 32 34 36 37 38 39 41 45 48 50 53 56 58 60 64 65 64 65 66 68 69 71 74 78 80 80 82 87
53 53 54 56 51 49 54 45 47 44 42 37 37 32 26 27 35 37 35 35 38 37 36 39 40 41 43 47 51 54 56 58 58 60 62 63 63 66 69 70 71 73 74 76 78 80 82 87 88

GFSSGP_500_spd_054.txt.gz
Wind_Speed
8 9 10 12 11 9 8 8 9 11 9 7 8 7 6 5 7 7 9 9 7 8 10 9 8 9 10 10 10 10 7 4 5 5 4 4 4 3 3 3 4 4 6 6 6 8 8 8 8
6 8 9 12 11 8 9 8 9 9 8 5 6 7 6 5 5 4 7 5 5 6 6 7 7 7 7 7 8 9 9 10 11 9 6 4 4 3 3 3 4 4 5 5 6 6 7 7 8
4 5 8 9 8 10 9 8 8 7 5 5 6 4 4 5 3 2 4 3 3 3 4 4 4 5 5 5 5 5 6 7 8 8 8 7 7 6 4 3 4 4 5 6 7 8 7 7 7
4 3 4 7 6 10 11 8 6 5 4 2 3 3 3 3 4 3 2 2 3 3 4 4 4 3 1 1 2 3 3 3 4 5 6 6 5 5 4 3 3 3 3 4 5 6 7 7 8
4 2 3 6 6 7 9 10 7 4 1 1 1 1 2 2 1 1 1 3 3 4 4 5 5 5 4 3 1 1 1 0 0 1 2 2 2 3 3 4 4 4 4 5 5 6 6 7 8
7 4 2 4 5 5 7 8 8 6 2 4 3 3 3 4 3 4 4 3 2 1 1 2 3 3 4 4 4 2 1 2 2 3 2 3 3 3 3 4 4 5 5 6 7 8 9 9 9
9 5 2 2 7 7 7 7 7 7 6 5 6 6 5 5 3 4 5 6 5 4 4 3 4 4 4 5 4 4 3 2 1 1 3 5 6 7 7 8 8 9 9 10 10 10 11 11 12
9 7 4 3 3 7 8 8 7 8 7 6 8 7 8 7 7 4 4 5 5 4 4 4 4 4 5 5 5 6 6 5 4 4 4 5 6 7 9 9 10 10 11 12 13 13 14 14 15
11 8 8 8 7 7 9 9 9 9 9 7 9 10 10 10 8 8 6 4 5 6 6 6 6 5 7 7 6 7 9 8 8 8 9 9 8 7 8 9 10 10 11 10 10 11 12 12 13
12 10 11 12 12 9 9 10 10 9 9 10 11 12 12 12 13 11 10 9 10 10 10 10 10 10 9 10 10 9 9 10 11 11 10 9 7 7 9 10 11 11 12 13 11 11 12 13 14
14 13 14 15 14 12 11 12 12 11 9 13 13 12 12 14 14 15 14 13 14 14 14 13 12 10 10 11 11 11 12 13 11 10 11 11 10 10 10 11 11 11 10 12 13 13 13 14 15
15 16 16 17 15 14 15 15 14 13 11 15 16 14 15 14 15 16 18 16 16 16 16 15 14 13 13 13 13 14 15 15 14 14 14 14 13 12 13 13 13 15 14 13 15 16 16 16 17
16 17 15 16 18 18 18 18 16 16 15 15 17 18 18 18 16 17 17 17 18 17 16 16 16 15 16 16 15 16 17 18 18 18 18 18 17 17 17 17 17 17 17 17 17 19 20 21 20
17 17 17 20 21 19 19 18 17 20 19 17 18 20 21 21 19 18 17 18 18 17 16 17 17 18 19 20 19 19 19 19 21 21 22 21 21 22 21 20 19 18 18 20 21 21 22 23 24
18 19 20 23 21 20 22 20 20 22 23 22 21 21 22 22 22 20 19 20 18 18 18 19 20 21 22 22 20 20 21 22 23 24 25 24 24 24 22 22 21 22 23 23 25 26 28 29 29
20 21 23 23 23 24 26 20 26 26 26 25 25 25 23 22 23 23 22 22 20 19 20 21 22 23 24 25 23 22 21 22 23 25 25 25 24 24 25 26 26 28 29 30 30 31 29 29 30
26 26 25 24 25 27 29 25 29 30 30 29 28 26 25 25 25 26 25 24 22 22 23 23 24 25 25 24 24 24 24 24 25 26 25 27 26 26 28 30 33 35 35 34 35 33 33 33 35
30 28 28 28 29 30 31 29 34 35 35 33 30 29 27 26 27 27 26 26 24 24 24 25 25 25 25 26 26 26 26 27 28 29 28 28 28 29 32 33 35 36 37 37 38 39 38 39 39
33 32 31 30 34 34 34 36 38 37 32 29 30 29 27 26 27 27 28 29 29 27 27 27 27 28 28 28 27 28 29 30 30 30 31 31 29 30 30 33 34 35 37 36 39 42 44 44 44
36 35 33 33 35 42 40 40 38 37 28 27 26 24 24 26 26 28 31 32 33 32 30 30 31 31 31 30 30 29 29 30 32 33 33 33 33 30 30 32 35 34 36 41 43 45 47 49 51
37 37 36 38 40 48 48 47 38 30 28 27 24 25 25 26 29 33 34 35 36 36 35 32 31 33 33 32 32 31 31 31 32 32 33 33 33 32 32 33 36 39 44 46 46 47 48 51 54
40 37 40 40 46 49 49 56 39 30 27 27 25 29 29 30 32 36 37 38 38 39 37 35 35 34 34 34 34 33 34 33 33 33 33 33 34 35 36 38 41 44 46 47 48 49 51 53 57
40 39 41 44 48 50 51 54 42 32 28 25 28 30 31 34 34 37 40 41 40 39 39 38 36 35 34 35 35 35 33 33 33 33 34 36 38 38 38 39 42 45 47 50 51 52 55 59 63
42 44 42 45 48 58 47 51 37 32 28 25 26 31 35 37 37 37 40 42 40 38 38 39 39 37 36 36 36 35 33 32 32 33 35 36 36 36 39 42 45 46 48 52 55 58 61 64 66
45 42 45 54 58 61 52 51 35 33 28 28 26 30 32 38 37 35 34 40 41 39 40 41 40 38 37 36 35 34 33 34 33 35 36 37 38 41 43 46 48 51 56 58 60 62 65 66 66
44 50 52 55 50 51 53 48 35 36 33 33 32 30 35 36 37 36 33 36 39 39 38 38 38 36 35 35 35 35 37 36 38 37 38 39 42 44 47 50 54 57 60 62 64 67 68 69 69
48 51 44 47 51 51 45 43 41 36 34 35 32 28 29 32 37 37 37 35 34 35 35 36 36 35 35 36 37 38 38 40 40 40 42 43 45 48 52 56 59 60 63 65 68 71 71 72 74
54 50 50 50 53 52 50 50 45 39 37 35 34 30 30 31 33 34 35 35 34 35 35 35 35 37 39 40 40 42 43 43 44 44 46 49 51 55 59 61 62 64 67 67 68 71 73 75 78
52 55 52 53 54 54 52 43 47 47 45 39 33 30 25 27 29 33 35 36 38 39 37 36 38 40 41 42 43 44 44 45 46 48 51 54 56 58 60 62 65 66 68 70 71 74 77 80 82
51 51 55 55 57 57 53 40 46 47 42 41 38 35 34 33 33 34 36 37 38 38 39 39 40 41 43 44 44 46 47 48 49 52 55 56 57 59 62 65 67 69 70 71 73 76 79 82 83

GFSSGP_500_spd_057.txt.gz
Wind_Speed
10 11 11 10 8 7 6 7 8 9 8 8 8 8 6 5 6 6 8 9 7 6 5 6 6 7 9 11 11 10 9 7 5 6 6 7 8 8 7 7 6 6 8 10 9 9 8 8 9
8 9 9 10 9 7 8 6 5 7 9 8 7 8 8 4 5 4 5 6 6 5 5 5 4 4 4 7 9 10 11 10 8 7 8 8 8 6 5 5 5 5 5 5 7 6 7 7 8
6 7 7 7 9 8 8 8 4 4 5 6 6 6 7 7 4 3 3 4 4 3 3 3 4 3 4 3 4 4 7 7 8 8 8 7 5 5 6 5 5 5 5 5 5 6 7 7 7
5 5 5 5 6 7 8 8 4 3 2 4 4 6 4 3 5 5 4 3 4 4 4 4 3 3 2 2 3 3 3 3 3 3 3 3 3 3 3 2 3 3 4 4 5 6 7 8 9
5 4 3 3 3 5 6 7 6 2 1 1 1 1 1 2 2 2 2 2 3 3 4 4 5 5 5 4 2 1 1 2 2 2 1 1 2 3 3 3 4 5 5 5 5 6 7 8 8
8 6 3 0 3 4 5 6 6 5 3 1 1 2 2 2 3 4 5 4 3 2 2 2 3 4 4 4 4 3 1 0 1 2 3 3 2 4 5 5 5 6 5 7 7 8 9 10 10
10 8 5 1 2 4 4 7 7 5 6 6 4 3 3 3 3 4 6 7 5 4 3 3 2 2 2 3 3 3 3 2 1 2 4 5 6 8 8 8 10 9 10 10 11 11 12 12 12
13 10 6 4 5 6 5 5 7 6 6 7 7 6 6 5 5 4 4 6 6 5 4 4 3 3 3 3 4 5 5 5 6 6 7 7 6 8 9 10 10 10 12 12 13 13 13 13 13
14 11 9 8 7 10 10 7 7 7 7 7 8 9 9 9 9 7 5 4 6 6 6 5 5 5 6 6 7 7 7 8 10 11 10 9 8 9 9 10 11 11 10 11 12 12 12 12 12
14 13 12 10 10 10 11 10 11 9 8 8 10 11 10 11 12 11 9 8 8 9 9 9 9 8 8 8 9 10 11 11 12 12 11 9 8 9 10 11 13 13 14 12 12 12 13 13 13
16 15 14 13 13 12 11 12 12 12 11 12 11 12 12 13 13 13 13 13 12 12 12 12 11 11 10 8 9 10 12 13 11 11 12 11 11 12 13 14 15 15 14 17 16 15 15 16 16
18 17 16 16 15 13 13 14 14 15 15 15 13 13 13 15 15 15 15 15 16 15 16 15 14 12 12 11 11 11 12 13 13 13 14 14 14 15 16 16 16 18 18 19 20 20 19 19 19
19 18 17 16 15 15 16 16 15 17 16 17 16 15 15 16 17 17 17 18 17 16 17 16 15 15 14 15 14 14 15 15 15 16 18 18 18 18 20 21 22 22 22 22 23 23 23 22 21
19 17 16 17 17 17 17 15 16 19 17 19 19 19 19 19 19 19 19 19 18 17 16 16 16 16 16 17 17 17 17 18 19 19 20 20 21 23 24 24 24 24 25 24 23 22 23 24 24
19 18 18 20 19 18 19 16 20 20 20 21 21 23 22 22 22 22 21 21 20 19 18 18 17 18 19 20 20 20 20 20 21 21 22 22 23 24 24 23 21 22 23 24 25 26 27 27 28
20 21 21 21 20 20 21 16 23 23 22 24 25 26 26 24 23 24 24 23 22 22 21 20 19 20 21 21 22 22 23 23 22 22 22 22 22 23 22 22 22 24 26 28 30 31 31 31 33
24 26 23 23 24 25 25 20 26 25 25 27 30 30 29 27 26 27 26 26 25 25 24 23 23 22 22 22 22 24 24 23 24 24 25 24 25 26 25 24 25 25 26 29 32 34 33 34 35
31 28 27 26 28 30 29 22 28 29 30 30 32 30 29 28 28 28 27 27 27 27 26 26 25 25 24 24 24 24 25 25 25 26 26 27 28 29 29 29 28 28 28 30 32 34 33 33 38
32 32 31 29 33 36 33 30 28 34 31 33 35 32 28 27 28 26 27 28 29 29 30 30 28 27 27 27 27 27 27 27 27 28 29 28 29 31 31 32 33 32 32 32 33 34 34 38 42
34 34 33 33 36 42 36 36 33 35 36 35 33 29 25 26 26 26 28 30 31 32 32 33 33 32 31 30 30 30 30 30 30 29 29 30 31 32 33 34 34 34 34 33 34 37 41 45 45
36 37 37 38 39 42 42 46 41 37 33 33 28 27 28 28 28 28 29 31 33 33 35 37 37 36 35 33 31 32 32 33 34 33 32 32 33 34 34 35 35 36 36 37 39 42 45 47 47
40 39 40 41 43 44 42 55 48 39 35 32 29 30 31 32 30 32 32 33 35 37 38 38 38 38 38 37 36 35 35 36 37 36 35 34 35 35 36 36 37 38 39 41 42 44 47 47 48
43 41 41 43 44 49 47 56 51 41 31 24 28 32 33 34 33 33 34 36 38 39 41 41 38 39 40 40 40 38 38 39 38 38 37 37 36 37 38 39 40 41 41 42 44 46 46 49 52
45 44 44 44 47 57 50 57 51 43 35 24 26 31 32 35 35 35 40 41 42 43 43 43 41 39 40 42 42 40 40 40 39 39 39 38 37 37 39 40 41 41 43 44 45 47 50 53 57
46 45 46 48 51 58 56 63 50 39 31 24 25 27 31 32 36 38 38 40 44 44 41 40 42 42 43 43 43 43 42 40 39 39 39 38 38 39 41 41 42 45 46 47 49 52 55 58 60
47 48 49 53 58 61 62 55 40 32 27 25 29 25 27 34 38 39 41 40 41 43 40 39 41 44 44 45 44 44 42 41 41 41 41 42 41 43 43 44 45 47 49 51 55 58 60 62 65
53 54 52 51 60 64 54 45 43 39 34 35 26 27 28 31 38 39 41 41 40 40 41 41 40 41 42 42 42 41 41 42 43 45 46 45 45 45 46 47 48 51 54 57 59 61 64 66 68
59 58 57 58 60 63 54 48 41 39 39 37 34 35 31 30 33 35 37 38 39 39 40 40 40 39 40 41 42 42 44 46 47 47 48 47 48 49 49 51 53 55 58 60 63 66 67 68 70
61 61 63 63 61 60 57 45 46 46 46 42 37 34 29 29 31 36 37 37 37 39 41 40 39 39 41 43 44 46 47 48 48 49 49 50 50 52 54 56 57 60 61 64 66 68 69 70 72
66 64 64 63 60 57 56 46 46 46 44 38 36 32 31 34 35 37 39 40 39 40 40 42 42 42 43 45 47 49 50 49 49 51 52 53 55 56 58 60 62 63 65 66 67 69 71 73 76

GFSSGP_500_spd_060.txt.gz
Wind_Speed
13 13 13 14 11 8 5 6 8 9 8 9 11 10 8 8 9 8 7 7 7 4 4 4 5 7 9 10 11 9 7 8 5 5 7 6 4 7 8 6 6 6 10 8 6 7 9 10 10
10 11 11 13 12 9 5 6 6 7 10 9 9 11 10 8 8 7 6 6 6 6 6 5 5 5 7 8 11 11 8 6 5 6 5 6 7 7 8 8 7 6 5 5 6 6 9 8 9
7 8 9 11 11 9 5 5 7 6 7 8 9 8 10 10 7 6 5 4 5 4 5 4 4 6 7 7 7 7 7 7 7 6 5 6 7 6 6 5 6 5 6 6 7 7 6 5 6
6 6 6 8 8 8 7 5 4 5 5 7 6 5 7 8 7 8 7 6 5 5 4 3 3 3 4 4 6 6 5 5 5 5 4 3 3 3 3 3 4 4 4 5 5 5 6 6 6
5 4 4 4 6 6 6 6 5 5 4 4 4 5 5 4 3 3 3 3 4 4 4 4 5 5 5 4 2 1 2 3 3 2 2 0 2 3 3 4 3 4 5 5 6 7 7 7 7
6 4 2 1 3 3 4 5 5 6 5 3 2 3 4 3 3 2 3 3 2 2 2 2 3 3 3 4 4 2 1 0 1 2 2 3 4 5 4 5 6 7 7 8 8 9 8 9 8
8 6 4 2 1 3 4 5 5 6 5 3 2 3 2 3 3 4 4 5 4 3 3 2 2 2 2 2 2 2 2 1 1 3 4 6 7 9 8 9 10 10 11 11 12 12 12 12 12
11 9 7 6 3 4 5 6 7 7 7 5 4 5 4 5 4 4 4 3 5 5 5 4 4 4 3 3 3 4 4 5 6 6 6 6 8 10 9 8 10 11 11 11 12 12 12 11 11
14 11 10 9 7 5 6 6 7 8 8 8 7 7 7 7 7 6 4 4 4 6 6 6 6 6 6 6 7 7 7 8 9 9 9 8 9 11 11 10 10 9 11 12 12 11 11 12 12
15 14 13 11 10 9 9 9 7 8 10 10 10 9 9 9 10 9 8 8 7 7 8 9 10 10 10 9 9 10 11 10 10 9 9 9 9 10 11 13 14 14 12 12 13 13 13 13 13
17 17 16 14 13 12 12 11 10 10 10 12 12 11 11 12 13 12 11 11 11 11 11 11 11 11 11 10 9 10 10 10 11 10 10 10 10 12 13 15 17 18 18 17 15 15 16 17 17
20 19 17 16 14 13 12 12 13 14 14 13 13 13 12 13 14 14 14 13 14 14 14 14 13 12 12 12 11 11 11 11 12 12 12 12 12 14 16 17 19 20 21 23 24 22 21 21 21
21 20 18 17 16 14 13 14 14 16 14 13 12 14 14 15 17 17 17 17 17 16 16 16 15 13 12 13 14 14 15 14 14 14 16 15 16 17 19 21 21 23 24 25 26 26 26 25 24
21 20 19 20 17 15 14 13 14 16 15 15 16 15 17 18 19 20 21 19 19 18 18 17 16 15 14 14 15 16 17 17 17 17 18 19 19 20 21 23 23 24 24 23 23 23 24 24 24
22 21 20 21 19 16 16 12 17 16 15 15 17 17 19 20 21 23 22 23 21 20 19 19 18 17 17 17 18 19 19 19 19 20 21 22 21 22 23 23 23 23 21 19 19 21 23 25 27
23 22 23 22 19 18 19 12 19 18 17 17 18 21 23 25 23 24 25 26 25 23 22 21 21 20 20 20 20 20 20 20 21 21 22 22 22 22 23 23 23 24 23 23 23 23 24 26 29
23 26 24 22 22 24 24 17 24 22 19 18 21 24 25 27 27 27 27 26 27 27 26 25 24 24 24 23 22 22 22 22 23 24 24 23 22 23 25 25 26 27 28 28 28 27 27 28 29
30 28 25 26 26 29 29 23 26 27 24 22 23 28 30 31 27 30 27 27 28 28 28 28 27 27 27 26 25 24 25 25 25 26 27 26 25 26 26 28 29 30 31 32 33 32 31 30 30
31 31 30 29 31 34 34 31 28 32 27 24 28 31 30 30 30 28 27 28 29 30 30 30 29 29 29 29 27 27 28 28 28 27 28 29 28 28 28 29 32 33 34 35 35 35 34 34 34
35 34 34 33 35 40 38 38 32 32 31 28 30 31 33 32 29 29 28 29 30 30 30 31 31 31 32 32 32 32 32 30 30 31 32 32 30 31 31 32 33 34 35 36 37 37 36 37 38
38 37 37 39 39 41 43 45 38 33 33 31 30 32 35 35 34 32 32 30 31 30 31 32 33 34 34 35 36 36 36 34 33 33 35 35 34 34 34 35 35 36 37 37 37 38 40 41 42
42 41 42 42 43 42 44 55 42 38 34 34 33 35 37 38 37 36 35 33 33 35 35 34 35 36 36 37 38 38 39 39 38 38 37 37 37 37 38 38 39 39 39 39 40 42 42 43 43
45 44 44 45 45 46 51 53 48 43 38 35 35 33 37 38 39 37 37 39 36 36 37 36 36 36 35 40 40 40 40 42 42 41 40 40 40 41 41 42 42 41 41 41 42 43 44 44 46
47 47 47 46 47 51 55 54 50 45 44 37 39 36 40 44 42 39 39 40 39 39 40 40 41 41 42 42 42 41 42 43 44 43 42 43 43 43 43 43 43 43 42 43 44 45 46 48 50
48 47 47 49 51 52 56 60 54 46 48 46 40 31 31 37 36 38 39 40 40 41 40 40 41 42 42 39 38 42 43 45 45 45 45 46 44 44 44 45 45 44 44 45 46 47 49 51 53
49 47 49 53 54 54 57 63 60 49 45 47 34 28 31 35 36 35 37 39 40 42 43 43 41 41 41 40 39 42 44 46 47 47 46 46 45 46 46 46 46 47 48 48 49 50 52 54 58
53 54 52 52 55 60 65 61 60 53 48 46 40 32 27 31 35 37 39 39 41 44 44 42 40 38 40 42 42 42 43 45 46 47 47 46 47 47 47 48 49 50 51 52 53 53 56 58 60
58 57 55 57 58 61 67 67 62 60 54 42 42 39 41 32 34 38 40 41 43 42 41 41 40 39 40 40 40 41 41 42 44 45 46 48 48 49 50 52 53 54 55 55 55 57 59 62 65
63 63 64 63 63 64 68 67 62 61 57 55 50 46 39 33 33 35 38 42 42 43 42 41 42 42 42 42 42 42 42 44 45 46 48 51 52 52 53 55 56 57 56 58 59 62 64 66 66
70 70 71 71 70 67 66 61 58 60 59 51 48 40 32 33 33 31 34 39 40 41 42 42 43 43 44 45 44 46 46 46 48 50 52 53 54 56 56 57 58 58 60 63 66 68 68 65 65